M I D A S
Marine Information and Data Acquisition System
Tripno 1162 of the Zeeleeuw from 2006-09-08 09:17:16 to 2006-09-08 13:34:01
Back to CruiseResearch ActivitiesStationsMapUnderway DataData graphs

EquipmentUnitsComment
TimeDGPSUTC
LatitudeDGPSDM.mWGS84
LongitudeDGPSDM.mWGS84
TemperatureSBE03/SBE38deg celciusITS90
ConductivitySBE21S/mITS90
SalinitySBE21 Practical Salinity Units
ChlorophylAChelsea fluorimeterg/lCalibrated in Aceton
Missing or incorrect values are displayed as -999
Sea surface data collected by the RV Zeeleeuw from 2006-09-08 07:01:20 to 2006-09-08 13:47:31
                                                                                    Next 1000 lines
Time Latitude Longitude Temperature Conductivity Salinity ChlorophylA
2006-09-08 07:01:30 51°13.596 2°56.091 21.7644 0.011935 0.064474 6.634819
2006-09-08 07:01:35 51°13.596 2°56.089 21.771 0.011935 0.064474 6.634819
2006-09-08 07:01:40 51°13.597 2°56.086 21.786 0.012039 0.064992 6.634819
2006-09-08 07:01:45 51°13.597 2°56.084 21.8074 0.012039 0.064991 6.634819
2006-09-08 07:01:50 51°13.597 2°56.081 21.8017 0.012039 0.064992 6.668529
2006-09-08 07:01:55 51°13.598 2°56.077 21.8033 0.012039 0.064992 6.634819
2006-09-08 07:02:00 51°13.598 2°56.073 21.8203 0.012039 0.064992 6.634819
2006-09-08 07:02:06 51°13.598 2°56.069 21.8564 0.012039 0.064992 6.60111
2006-09-08 07:02:11 51°13.599 2°56.065 21.8666 0.011935 0.064474 6.668529
2006-09-08 07:02:16 51°13.599 2°56.062 21.8575 0.012039 0.064992 6.634819
2006-09-08 07:02:20 51°13.599 2°56.06 21.8796 0.011935 0.064474 6.60111
2006-09-08 07:02:26 51°13.599 2°56.058 21.8903 0.011935 0.064474 6.634819
2006-09-08 07:02:30 51°13.599 2°56.058 21.8905 0.011935 0.064474 6.634819
2006-09-08 07:02:36 51°13.599 2°56.06 21.884 0.011935 0.064474 6.634819
2006-09-08 07:02:40 51°13.599 2°56.061 21.8733 0.011935 0.064474 6.634819
2006-09-08 07:02:45 51°13.598 2°56.064 21.8789 0.012039 0.064992 6.634819
2006-09-08 07:02:50 51°13.598 2°56.068 21.7868 0.011935 0.064475 6.634819
2006-09-08 07:02:55 51°13.597 2°56.072 21.8122 0.011935 0.064475 6.668529
2006-09-08 07:02:59 51°13.596 2°56.076 21.777 0.011935 0.064475 6.668529
2006-09-08 07:03:04 51°13.596 2°56.08 21.7785 0.011935 0.064476 6.668529
2006-09-08 07:03:09 51°13.595 2°56.084 21.7497 0.012039 0.064994 6.634819
2006-09-08 07:03:14 51°13.594 2°56.088 21.7653 0.011935 0.064476 6.634819
2006-09-08 07:03:19 51°13.594 2°56.092 21.7616 0.011935 0.064477 6.634819
2006-09-08 07:03:24 51°13.593 2°56.096 21.7597 0.011935 0.064477 6.60111
2006-09-08 07:03:30 51°13.592 2°56.1 21.7173 0.011935 0.064477 6.60111
2006-09-08 07:03:35 51°13.591 2°56.103 21.7087 0.012039 0.064995 6.668529
2006-09-08 07:03:40 51°13.59 2°56.106 21.713 0.011935 0.064477 6.60111
2006-09-08 07:03:45 51°13.59 2°56.107 21.7044 0.011935 0.064477 6.60111
2006-09-08 07:03:50 51°13.59 2°56.109 21.7081 0.011935 0.064477 6.634819
2006-09-08 07:03:55 51°13.589 2°56.111 21.7134 0.011935 0.064478 6.634819
2006-09-08 07:03:59 51°13.589 2°56.112 21.715 0.011935 0.064478 6.634819
2006-09-08 07:04:05 51°13.588 2°56.114 21.7097 0.012039 0.064995 6.634819
2006-09-08 07:04:10 51°13.588 2°56.115 21.7195 0.011935 0.064477 6.60111
2006-09-08 07:04:15 51°13.587 2°56.116 21.7435 0.011935 0.064478 6.634819
2006-09-08 07:04:20 51°13.587 2°56.118 21.7003 0.011935 0.064478 6.634819
2006-09-08 07:04:25 51°13.586 2°56.12 21.7157 0.011935 0.064478 6.60111
2006-09-08 07:04:30 51°13.585 2°56.121 21.7243 0.011935 0.064478 6.60111
2006-09-08 07:04:35 51°13.585 2°56.121 21.6707 0.011935 0.064478 6.634819
2006-09-08 07:04:40 51°13.585 2°56.121 21.7377 0.011935 0.064478 6.634819
2006-09-08 07:04:44 51°13.585 2°56.121 21.73 0.011935 0.064478 6.634819
2006-09-08 07:04:49 51°13.585 2°56.122 21.7323 0.011935 0.064477 6.60111
2006-09-08 07:04:54 51°13.584 2°56.122 21.7155 0.011935 0.064477 6.634819
2006-09-08 07:05:00 51°13.584 2°56.122 21.7353 0.011935 0.064477 6.634819
2006-09-08 07:05:04 51°13.584 2°56.122 21.7349 0.011935 0.064478 6.634819
2006-09-08 07:05:10 51°13.584 2°56.123 21.7449 0.011935 0.064478 6.634819
2006-09-08 07:05:15 51°13.583 2°56.123 21.7461 0.011935 0.064478 6.634819
2006-09-08 07:05:20 51°13.583 2°56.124 21.7632 0.011935 0.064479 6.60111
2006-09-08 07:05:25 51°13.582 2°56.124 21.7588 0.011935 0.064479 6.634819
2006-09-08 07:05:30 51°13.582 2°56.125 21.7614 0.011935 0.064479 6.634819
2006-09-08 07:05:35 51°13.581 2°56.126 21.7635 0.012039 0.064996 6.634819
2006-09-08 07:05:40 51°13.581 2°56.127 21.7671 0.011935 0.064479 6.634819
2006-09-08 07:05:44 51°13.58 2°56.128 21.7676 0.011935 0.06448 6.60111
2006-09-08 07:05:50 51°13.58 2°56.129 21.7689 0.011935 0.06448 6.60111
2006-09-08 07:05:55 51°13.579 2°56.129 21.771 0.011935 0.064479 6.60111
2006-09-08 07:06:00 51°13.579 2°56.13 21.7717 0.011935 0.064479 6.60111
2006-09-08 07:06:04 51°13.578 2°56.131 21.7731 0.012039 0.064998 6.634819
2006-09-08 07:06:10 51°13.578 2°56.132 21.7596 0.011935 0.064479 6.634819
2006-09-08 07:06:15 51°13.578 2°56.133 21.7586 0.012039 0.064998 6.60111
2006-09-08 07:06:20 51°13.578 2°56.133 21.7669 0.011935 0.06448 6.60111
2006-09-08 07:06:25 51°13.578 2°56.133 21.7587 0.011935 0.06448 6.634819
2006-09-08 07:06:30 51°13.578 2°56.134 21.7633 0.011935 0.06448 6.634819
2006-09-08 07:06:35 51°13.578 2°56.134 21.7467 0.012039 0.064998 6.60111
2006-09-08 07:06:40 51°13.578 2°56.135 21.755 0.011935 0.06448 6.60111
2006-09-08 07:06:45 51°13.578 2°56.135 21.7421 0.011935 0.06448 6.60111
2006-09-08 07:06:50 51°13.578 2°56.135 21.7535 0.012039 0.064999 6.634819
2006-09-08 07:06:55 51°13.578 2°56.135 21.7483 0.012039 0.064998 6.5674
2006-09-08 07:07:00 51°13.578 2°56.135 21.7547 0.012039 0.064998 6.5674
2006-09-08 07:07:05 51°13.578 2°56.135 21.7541 0.011935 0.06448 6.60111
2006-09-08 07:07:10 51°13.579 2°56.136 21.7577 0.011935 0.064481 6.60111
2006-09-08 07:07:15 51°13.579 2°56.136 21.759 0.011935 0.064481 6.634819
2006-09-08 07:07:20 51°13.579 2°56.136 21.725 0.012039 0.064999 6.60111
2006-09-08 07:07:25 51°13.579 2°56.136 21.7318 0.011935 0.064481 6.60111
2006-09-08 07:07:30 51°13.578 2°56.136 21.7276 0.011935 0.064481 6.60111
2006-09-08 07:07:34 51°13.579 2°56.136 21.7395 0.012039 0.065 6.60111
2006-09-08 07:07:40 51°13.579 2°56.135 21.754 0.011935 0.064481 6.5674
2006-09-08 07:07:45 51°13.579 2°56.136 21.7567 0.011935 0.064482 6.60111
2006-09-08 07:07:50 51°13.579 2°56.135 21.7417 0.011935 0.064481 6.60111
2006-09-08 07:07:55 51°13.579 2°56.136 21.7339 0.011935 0.064481 6.634819
2006-09-08 07:08:00 51°13.579 2°56.136 21.7015 0.011935 0.064481 6.634819
2006-09-08 07:08:05 51°13.579 2°56.136 21.6983 0.011935 0.064481 6.60111
2006-09-08 07:08:10 51°13.579 2°56.135 21.6852 0.011935 0.064482 6.60111
2006-09-08 07:08:15 51°13.579 2°56.135 21.6726 0.012039 0.064999 6.60111
2006-09-08 07:08:19 51°13.579 2°56.136 21.6638 0.011935 0.064482 6.5674
2006-09-08 07:08:25 51°13.579 2°56.136 21.6609 0.011935 0.064482 6.60111
2006-09-08 07:08:30 51°13.579 2°56.136 21.6634 0.011935 0.064482 6.60111
2006-09-08 07:08:35 51°13.579 2°56.136 21.6658 0.012039 0.065 6.5674
2006-09-08 07:08:40 51°13.579 2°56.136 21.6678 0.011935 0.064482 6.634819
2006-09-08 07:08:45 51°13.579 2°56.136 21.6691 0.011935 0.064482 6.634819
2006-09-08 07:08:50 51°13.579 2°56.135 21.6704 0.011935 0.064483 6.60111
2006-09-08 07:08:55 51°13.579 2°56.135 21.6682 0.011935 0.064482 6.60111
2006-09-08 07:09:00 51°13.579 2°56.135 21.6654 0.011935 0.064482 6.60111
2006-09-08 07:09:05 51°13.579 2°56.135 21.6627 0.011935 0.064483 6.5674
2006-09-08 07:09:10 51°13.579 2°56.135 21.6584 0.012039 0.065001 6.60111
2006-09-08 07:09:15 51°13.579 2°56.135 21.6582 0.011935 0.064483 6.60111
2006-09-08 07:09:20 51°13.579 2°56.135 21.6588 0.011935 0.064483 6.60111
2006-09-08 07:09:25 51°13.579 2°56.135 21.658 0.012039 0.065001 6.60111
2006-09-08 07:09:30 51°13.579 2°56.136 21.6582 0.012039 0.065001 6.60111
2006-09-08 07:09:35 51°13.579 2°56.136 21.6574 0.012039 0.065001 6.60111
2006-09-08 07:09:40 51°13.579 2°56.136 21.6525 0.011935 0.064483 6.60111
2006-09-08 07:09:44 51°13.579 2°56.136 21.6548 0.011935 0.064483 6.60111
2006-09-08 07:09:50 51°13.579 2°56.136 21.6582 0.011935 0.064483 6.60111
2006-09-08 07:09:55 51°13.579 2°56.136 21.6532 0.011935 0.064483 6.5674
2006-09-08 07:10:00 51°13.579 2°56.136 21.6544 0.011935 0.064483 6.5674
2006-09-08 07:10:05 51°13.579 2°56.136 21.6578 0.012039 0.065001 6.5674
2006-09-08 07:10:10 51°13.579 2°56.136 21.6442 0.011935 0.064484 6.60111
2006-09-08 07:10:15 51°13.58 2°56.136 21.6479 0.012039 0.065002 6.5674
2006-09-08 07:10:19 51°13.58 2°56.136 21.6353 0.011935 0.064484 6.60111
2006-09-08 07:10:25 51°13.58 2°56.136 21.6416 0.012039 0.065002 6.60111
2006-09-08 07:10:30 51°13.58 2°56.136 21.6105 0.012039 0.065002 6.60111
2006-09-08 07:10:33 51°13.58 2°56.137 21.6232 0.012039 0.065002 6.5674
2006-09-08 07:10:40 51°13.58 2°56.137 21.5995 0.012039 0.065002 6.5674
2006-09-08 07:10:45 51°13.58 2°56.136 21.5895 0.011935 0.064485 6.5674
2006-09-08 07:10:50 51°13.579 2°56.136 21.5835 0.012039 0.065002 6.60111
2006-09-08 07:10:54 51°13.579 2°56.136 21.5593 0.011935 0.064483 6.60111
2006-09-08 07:11:00 51°13.579 2°56.135 21.5251 0.011935 0.064483 6.60111
2006-09-08 07:11:05 51°13.579 2°56.136 21.5164 0.011935 0.064484 6.5674
2006-09-08 07:11:10 51°13.579 2°56.136 21.5005 0.011935 0.064483 6.5674
2006-09-08 07:11:15 51°13.579 2°56.136 21.494 0.011935 0.064484 6.60111
2006-09-08 07:11:20 51°13.579 2°56.136 21.4977 0.011935 0.064484 6.5674
2006-09-08 07:11:24 51°13.579 2°56.136 21.4991 0.011935 0.064484 6.5674
2006-09-08 07:11:30 51°13.579 2°56.135 21.5063 0.011935 0.064484 6.5674
2006-09-08 07:11:35 51°13.579 2°56.135 21.5039 0.012039 0.065001 6.5674
2006-09-08 07:11:40 51°13.579 2°56.135 21.5117 0.011935 0.064484 6.5674
2006-09-08 07:11:44 51°13.579 2°56.135 21.5159 0.011935 0.064483 6.5674
2006-09-08 07:11:49 51°13.579 2°56.135 21.5142 0.011935 0.064484 6.60111
2006-09-08 07:11:53 51°13.579 2°56.136 21.5182 0.011935 0.064484 6.5674
2006-09-08 07:12:00 51°13.58 2°56.136 21.5098 0.011935 0.064484 6.5674
2006-09-08 07:12:05 51°13.579 2°56.136 21.5146 0.012039 0.065002 6.533691
2006-09-08 07:12:10 51°13.579 2°56.136 21.5146 0.011935 0.064485 6.60111
2006-09-08 07:12:15 51°13.579 2°56.136 21.5203 0.011935 0.064485 6.5674
2006-09-08 07:12:20 51°13.58 2°56.136 21.5239 0.011935 0.064485 6.60111
2006-09-08 07:12:25 51°13.58 2°56.136 21.5275 0.011935 0.064486 6.5674
2006-09-08 07:12:30 51°13.58 2°56.137 21.527 0.011935 0.064486 6.5674
2006-09-08 07:12:35 51°13.58 2°56.137 21.5328 0.011935 0.064484 6.5674
2006-09-08 07:12:39 51°13.58 2°56.137 21.5366 0.011935 0.064484 6.5674
2006-09-08 07:12:45 51°13.58 2°56.137 21.5438 0.011935 0.064485 6.5674
2006-09-08 07:12:50 51°13.58 2°56.137 21.5455 0.012039 0.065004 6.5674
2006-09-08 07:12:55 51°13.58 2°56.137 21.5491 0.011935 0.064485 6.5674
2006-09-08 07:13:00 51°13.58 2°56.137 21.5545 0.011935 0.064485 6.5674
2006-09-08 07:13:05 51°13.58 2°56.137 21.5572 0.011935 0.064486 6.5674
2006-09-08 07:13:10 51°13.58 2°56.137 21.5621 0.011935 0.064486 6.533691
2006-09-08 07:13:15 51°13.58 2°56.137 21.5667 0.012039 0.065004 6.60111
2006-09-08 07:13:20 51°13.58 2°56.137 21.5699 0.011935 0.064486 6.60111
2006-09-08 07:13:25 51°13.58 2°56.137 21.5735 0.011935 0.064486 6.533691
2006-09-08 07:13:30 51°13.58 2°56.136 21.576 0.011935 0.064486 6.533691
2006-09-08 07:13:35 51°13.58 2°56.136 21.5775 0.011935 0.064486 6.5674
2006-09-08 07:13:40 51°13.58 2°56.137 21.5805 0.011935 0.064486 6.60111
2006-09-08 07:13:45 51°13.58 2°56.136 21.5834 0.011935 0.064486 6.5674
2006-09-08 07:13:50 51°13.58 2°56.136 21.5864 0.011935 0.064486 6.5674
2006-09-08 07:13:55 51°13.58 2°56.136 21.5897 0.011935 0.064486 6.533691
2006-09-08 07:14:00 51°13.58 2°56.136 21.5929 0.011935 0.064486 6.533691
2006-09-08 07:14:05 51°13.58 2°56.136 21.5951 0.011935 0.064487 6.60111
2006-09-08 07:14:10 51°13.58 2°56.136 21.596 0.012039 0.065006 6.5674
2006-09-08 07:14:15 51°13.58 2°56.136 21.5973 0.011935 0.064487 6.533691
2006-09-08 07:14:20 51°13.58 2°56.137 21.5993 0.011935 0.064487 6.5674
2006-09-08 07:14:25 51°13.58 2°56.137 21.6013 0.011935 0.064487 6.60111
2006-09-08 07:14:30 51°13.58 2°56.137 21.6027 0.011935 0.064487 6.60111
2006-09-08 07:14:35 51°13.58 2°56.137 21.6036 0.011935 0.064487 6.533691
2006-09-08 07:14:40 51°13.58 2°56.137 21.606 0.011935 0.064489 6.533691
2006-09-08 07:14:45 51°13.58 2°56.137 21.6056 0.011935 0.064488 6.5674
2006-09-08 07:14:50 51°13.58 2°56.137 21.6099 0.011935 0.064488 6.533691
2006-09-08 07:14:55 51°13.58 2°56.137 21.6148 0.011935 0.064488 6.5674
2006-09-08 07:14:59 51°13.58 2°56.136 21.6187 0.011935 0.064488 6.5674
2006-09-08 07:15:05 51°13.58 2°56.137 21.6208 0.011935 0.064489 6.5674
2006-09-08 07:15:10 51°13.58 2°56.137 21.6212 0.011935 0.064489 6.533691
2006-09-08 07:15:15 51°13.58 2°56.137 21.6247 0.011935 0.064489 6.533691
2006-09-08 07:15:20 51°13.581 2°56.137 21.6261 0.011935 0.064489 6.499982
2006-09-08 07:15:25 51°13.581 2°56.137 21.6279 0.011935 0.064489 6.5674
2006-09-08 07:15:30 51°13.581 2°56.137 21.6313 0.011935 0.064489 6.5674
2006-09-08 07:15:35 51°13.581 2°56.137 21.6321 0.011935 0.064489 6.5674
2006-09-08 07:15:40 51°13.581 2°56.137 21.6329 0.011935 0.064489 6.533691
2006-09-08 07:15:45 51°13.581 2°56.137 21.6355 0.011935 0.064489 6.533691
2006-09-08 07:15:50 51°13.581 2°56.137 21.6382 0.011935 0.064489 6.5674
2006-09-08 07:15:55 51°13.58 2°56.137 21.6401 0.011935 0.06449 6.533691
2006-09-08 07:16:00 51°13.58 2°56.137 21.6409 0.011935 0.06449 6.533691
2006-09-08 07:16:04 51°13.58 2°56.137 21.6403 0.011935 0.06449 6.533691
2006-09-08 07:16:10 51°13.58 2°56.137 21.6419 0.011935 0.06449 6.533691
2006-09-08 07:16:15 51°13.58 2°56.137 21.6437 0.011935 0.06449 6.5674
2006-09-08 07:16:20 51°13.58 2°56.137 21.6463 0.011935 0.064489 6.533691
2006-09-08 07:16:25 51°13.58 2°56.137 21.6473 0.011935 0.06449 6.533691
2006-09-08 07:16:30 51°13.58 2°56.137 21.649 0.011935 0.06449 6.533691
2006-09-08 07:16:35 51°13.58 2°56.137 21.6501 0.011935 0.06449 6.499982
2006-09-08 07:16:39 51°13.58 2°56.137 21.649 0.011935 0.06449 6.5674
2006-09-08 07:16:44 51°13.58 2°56.137 21.6485 0.011935 0.064491 6.5674
2006-09-08 07:16:50 51°13.58 2°56.137 21.6439 0.011935 0.064491 6.533691
2006-09-08 07:16:55 51°13.58 2°56.137 21.6428 0.011935 0.064491 6.5674
2006-09-08 07:17:00 51°13.58 2°56.137 21.6449 0.011935 0.064491 6.5674
2006-09-08 07:17:05 51°13.58 2°56.137 21.6472 0.011935 0.064491 6.5674
2006-09-08 07:17:10 51°13.58 2°56.137 21.6497 0.012039 0.065009 6.5674
2006-09-08 07:17:15 51°13.58 2°56.137 21.6517 0.011935 0.064491 6.533691
2006-09-08 07:17:20 51°13.58 2°56.137 21.6542 0.011935 0.064491 6.499982
2006-09-08 07:17:24 51°13.58 2°56.137 21.6581 0.011935 0.064492 6.499982
2006-09-08 07:17:30 51°13.58 2°56.137 21.6602 0.011935 0.064492 6.499982
2006-09-08 07:17:35 51°13.58 2°56.137 21.6613 0.011935 0.064491 6.5674
2006-09-08 07:17:40 51°13.58 2°56.137 21.6613 0.011935 0.064492 6.533691
2006-09-08 07:17:45 51°13.58 2°56.137 21.664 0.011935 0.064492 6.533691
2006-09-08 07:17:50 51°13.58 2°56.137 21.6644 0.011935 0.064492 6.533691
2006-09-08 07:17:55 51°13.58 2°56.137 21.666 0.011935 0.064493 6.533691
2006-09-08 07:18:00 51°13.58 2°56.137 21.6641 0.011935 0.064493 6.533691
2006-09-08 07:18:04 51°13.58 2°56.137 21.6651 0.011935 0.064492 6.5674
2006-09-08 07:18:10 51°13.58 2°56.136 21.6656 0.011935 0.064492 6.533691
2006-09-08 07:18:15 51°13.58 2°56.136 21.6679 0.011935 0.064492 6.533691
2006-09-08 07:18:20 51°13.58 2°56.136 21.6689 0.011935 0.064492 6.533691
2006-09-08 07:18:24 51°13.58 2°56.136 21.6697 0.011935 0.064493 6.533691
2006-09-08 07:18:30 51°13.58 2°56.136 21.6687 0.011935 0.064493 6.533691
2006-09-08 07:18:35 51°13.58 2°56.136 21.6703 0.011935 0.064492 6.499982
2006-09-08 07:18:40 51°13.58 2°56.136 21.6698 0.011935 0.064493 6.533691
2006-09-08 07:18:45 51°13.58 2°56.136 21.6717 0.011935 0.064492 6.499982
2006-09-08 07:18:50 51°13.58 2°56.136 21.6745 0.011935 0.064493 6.5674
2006-09-08 07:18:55 51°13.58 2°56.136 21.6764 0.011935 0.064493 6.499982
2006-09-08 07:19:00 51°13.58 2°56.136 21.6773 0.011935 0.064493 6.499982
2006-09-08 07:19:05 51°13.58 2°56.136 21.6787 0.011935 0.064493 6.499982
2006-09-08 07:19:10 51°13.58 2°56.136 21.6801 0.011935 0.064493 6.533691
2006-09-08 07:19:15 51°13.58 2°56.136 21.6816 0.011935 0.064493 6.533691
2006-09-08 07:19:20 51°13.58 2°56.136 21.6827 0.011935 0.064494 6.533691
2006-09-08 07:19:25 51°13.58 2°56.136 21.6833 0.011935 0.064493 6.499982
2006-09-08 07:19:30 51°13.58 2°56.136 21.6858 0.011935 0.064493 6.499982
2006-09-08 07:19:35 51°13.58 2°56.136 21.687 0.011935 0.064494 6.533691
2006-09-08 07:19:40 51°13.58 2°56.136 21.6893 0.011935 0.064494 6.533691
2006-09-08 07:19:44 51°13.58 2°56.136 21.6897 0.011935 0.064494 6.533691
2006-09-08 07:19:50 51°13.58 2°56.136 21.6921 0.011935 0.064494 6.499982
2006-09-08 07:19:55 51°13.58 2°56.136 21.6935 0.011935 0.064494 6.499982
2006-09-08 07:20:00 51°13.58 2°56.136 21.6947 0.011935 0.064494 6.499982
2006-09-08 07:20:05 51°13.58 2°56.136 21.6955 0.011935 0.064494 6.533691
2006-09-08 07:20:10 51°13.58 2°56.136 21.6971 0.011935 0.064494 6.533691
2006-09-08 07:20:15 51°13.58 2°56.136 21.6969 0.011935 0.064494 6.499982
2006-09-08 07:20:20 51°13.58 2°56.136 21.6987 0.011935 0.064493 6.499982
2006-09-08 07:20:24 51°13.58 2°56.136 21.6982 0.011935 0.064493 6.499982
2006-09-08 07:20:30 51°13.58 2°56.136 21.6973 0.011935 0.064493 6.499982
2006-09-08 07:20:34 51°13.58 2°56.136 21.6985 0.011935 0.064493 6.499982
2006-09-08 07:20:39 51°13.58 2°56.136 21.6984 0.011935 0.064493 6.499982
2006-09-08 07:20:45 51°13.58 2°56.136 21.6979 0.011935 0.064492 6.533691
2006-09-08 07:20:50 51°13.58 2°56.136 21.7014 0.011935 0.064492 6.499982
2006-09-08 07:20:55 51°13.58 2°56.136 21.7008 0.011935 0.064492 6.533691
2006-09-08 07:21:00 51°13.58 2°56.136 21.7022 0.011935 0.064492 6.533691
2006-09-08 07:21:04 51°13.58 2°56.136 21.7036 0.011935 0.064492 6.499982
2006-09-08 07:21:10 51°13.58 2°56.136 21.7021 0.011935 0.064492 6.499982
2006-09-08 07:21:15 51°13.58 2°56.136 21.7034 0.011935 0.064491 6.499982
2006-09-08 07:21:20 51°13.58 2°56.136 21.7026 0.011935 0.064491 6.499982
2006-09-08 07:21:25 51°13.58 2°56.136 21.7037 0.011935 0.064489 6.533691
2006-09-08 07:21:29 51°13.58 2°56.136 21.705 0.011935 0.064489 6.533691
2006-09-08 07:21:35 51°13.58 2°56.136 21.7054 0.011935 0.06449 6.533691
2006-09-08 07:21:40 51°13.58 2°56.136 21.7055 0.011935 0.064489 6.533691
2006-09-08 07:21:44 51°13.58 2°56.136 21.7071 0.011935 0.064489 6.499982
2006-09-08 07:21:50 51°13.58 2°56.136 21.7089 0.011935 0.064488 6.499982
2006-09-08 07:21:55 51°13.58 2°56.136 21.71 0.011935 0.064488 6.499982
2006-09-08 07:22:00 51°13.58 2°56.136 21.7113 0.011935 0.064488 6.499982
2006-09-08 07:22:05 51°13.58 2°56.136 21.7136 0.011935 0.064487 6.499982
2006-09-08 07:22:10 51°13.58 2°56.136 21.7126 0.011935 0.064486 6.499982
2006-09-08 07:22:15 51°13.58 2°56.136 21.7142 0.011935 0.064486 6.499982
2006-09-08 07:22:20 51°13.58 2°56.136 21.7138 0.011935 0.064485 6.499982
2006-09-08 07:22:25 51°13.58 2°56.136 21.715 0.011935 0.064485 6.499982
2006-09-08 07:22:30 51°13.581 2°56.136 21.7161 0.011935 0.064485 6.499982
2006-09-08 07:22:35 51°13.58 2°56.136 21.7177 0.011935 0.064484 6.499982
2006-09-08 07:22:40 51°13.58 2°56.136 21.7198 0.011935 0.064483 6.499982
2006-09-08 07:22:45 51°13.58 2°56.136 21.7204 0.011935 0.064483 6.499982
2006-09-08 07:22:50 51°13.58 2°56.136 21.7208 0.011935 0.064482 6.466272
2006-09-08 07:22:55 51°13.58 2°56.136 21.7194 0.011935 0.064481 6.499982
2006-09-08 07:23:00 51°13.58 2°56.137 21.721 0.011935 0.064481 6.499982
2006-09-08 07:23:05 51°13.58 2°56.137 21.7222 0.011935 0.06448 6.499982
2006-09-08 07:23:10 51°13.58 2°56.137 21.7231 0.011935 0.06448 6.533691
2006-09-08 07:23:15 51°13.58 2°56.137 21.7254 0.011935 0.064479 6.466272
2006-09-08 07:23:20 51°13.58 2°56.137 21.7263 0.011935 0.064478 6.466272
2006-09-08 07:23:24 51°13.58 2°56.137 21.7276 0.011935 0.064477 6.533691
2006-09-08 07:23:30 51°13.58 2°56.137 21.7281 0.011935 0.064477 6.533691
2006-09-08 07:23:35 51°13.58 2°56.137 21.7304 0.011935 0.064477 6.466272
2006-09-08 07:23:40 51°13.58 2°56.137 21.7305 0.011935 0.064475 6.499982
2006-09-08 07:23:44 51°13.58 2°56.136 21.7324 0.011935 0.064474 6.499982
2006-09-08 07:23:50 51°13.58 2°56.136 21.7343 0.011935 0.064474 6.466272
2006-09-08 07:23:55 51°13.58 2°56.137 21.7341 0.011935 0.064474 6.499982
2006-09-08 07:24:00 51°13.58 2°56.136 21.7358 0.011935 0.064474 6.499982
2006-09-08 07:24:05 51°13.58 2°56.136 21.7366 0.011935 0.064472 6.466272
2006-09-08 07:24:10 51°13.58 2°56.136 21.738 0.011935 0.06447 6.499982
2006-09-08 07:24:15 51°13.58 2°56.136 21.7372 0.011935 0.06447 6.499982
2006-09-08 07:24:20 51°13.58 2°56.136 21.7379 0.011935 0.064469 6.499982
2006-09-08 07:24:25 51°13.581 2°56.136 21.7394 0.011935 0.064468 6.499982
2006-09-08 07:24:30 51°13.58 2°56.136 21.7414 0.011935 0.064468 6.499982
2006-09-08 07:24:35 51°13.58 2°56.136 21.7419 0.011935 0.064468 6.466272
2006-09-08 07:24:40 51°13.58 2°56.136 21.7407 0.011935 0.064466 6.499982
2006-09-08 07:24:45 51°13.58 2°56.136 21.7407 0.011935 0.064465 6.466272
2006-09-08 07:24:50 51°13.58 2°56.136 21.7433 0.011935 0.064464 6.466272
2006-09-08 07:24:55 51°13.58 2°56.136 21.7444 0.011935 0.064464 6.466272
2006-09-08 07:25:00 51°13.58 2°56.136 21.7449 0.011935 0.064464 6.466272
2006-09-08 07:25:05 51°13.58 2°56.136 21.7462 0.011935 0.064462 6.499982
2006-09-08 07:25:10 51°13.58 2°56.136 21.7463 0.011935 0.064462 6.466272
2006-09-08 07:25:15 51°13.58 2°56.136 21.7462 0.011935 0.06446 6.499982
2006-09-08 07:25:20 51°13.58 2°56.136 21.7488 0.011935 0.064459 6.499982
2006-09-08 07:25:25 51°13.58 2°56.136 21.7493 0.011935 0.064459 6.466272
2006-09-08 07:25:30 51°13.58 2°56.136 21.7516 0.011935 0.064459 6.466272
2006-09-08 07:25:35 51°13.58 2°56.136 21.7524 0.011935 0.064458 6.499982
2006-09-08 07:25:40 51°13.58 2°56.136 21.7538 0.011935 0.064456 6.466272
2006-09-08 07:25:45 51°13.58 2°56.136 21.7528 0.011935 0.064455 6.432563
2006-09-08 07:25:49 51°13.58 2°56.136 21.7534 0.011935 0.064455 6.499982
2006-09-08 07:25:55 51°13.58 2°56.136 21.7551 0.011935 0.064453 6.499982
2006-09-08 07:26:00 51°13.58 2°56.136 21.7562 0.011935 0.064453 6.499982
2006-09-08 07:26:05 51°13.58 2°56.136 21.756 0.011935 0.064452 6.499982
2006-09-08 07:26:10 51°13.58 2°56.136 21.7554 0.011935 0.064452 6.499982
2006-09-08 07:26:15 51°13.58 2°56.136 21.755 0.011935 0.06445 6.466272
2006-09-08 07:26:20 51°13.58 2°56.136 21.7564 0.011935 0.064449 6.466272
2006-09-08 07:26:24 51°13.58 2°56.136 21.7575 0.011935 0.064448 6.466272
2006-09-08 07:26:30 51°13.58 2°56.136 21.7585 0.011935 0.064448 6.466272
2006-09-08 07:26:35 51°13.58 2°56.136 21.7588 0.011935 0.064447 6.466272
2006-09-08 07:26:40 51°13.58 2°56.136 21.7588 0.011935 0.064446 6.466272
2006-09-08 07:26:44 51°13.58 2°56.136 21.7605 0.011935 0.064444 6.499982
2006-09-08 07:26:50 51°13.58 2°56.137 21.7616 0.011935 0.064444 6.466272
2006-09-08 07:26:55 51°13.58 2°56.137 21.7621 0.011935 0.064443 6.432563
2006-09-08 07:27:00 51°13.58 2°56.137 21.7635 0.011935 0.064443 6.432563
2006-09-08 07:27:05 51°13.58 2°56.137 21.7644 0.011935 0.064442 6.499982
2006-09-08 07:27:10 51°13.58 2°56.137 21.765 0.011935 0.064441 6.466272
2006-09-08 07:27:15 51°13.58 2°56.137 21.7664 0.011935 0.06444 6.466272
2006-09-08 07:27:20 51°13.58 2°56.137 21.7661 0.011935 0.064438 6.499982
2006-09-08 07:27:25 51°13.58 2°56.136 21.7668 0.011935 0.064438 6.466272
2006-09-08 07:27:30 51°13.58 2°56.136 21.7674 0.011935 0.064438 6.466272
2006-09-08 07:27:35 51°13.58 2°56.136 21.7684 0.011935 0.064437 6.466272
2006-09-08 07:27:40 51°13.58 2°56.136 21.7686 0.011935 0.064435 6.466272
2006-09-08 07:27:45 51°13.58 2°56.136 21.7682 0.011935 0.064435 6.466272
2006-09-08 07:27:50 51°13.58 2°56.136 21.7677 0.011935 0.064433 6.466272
2006-09-08 07:27:55 51°13.58 2°56.136 21.7683 0.011935 0.064432 6.466272
2006-09-08 07:28:00 51°13.58 2°56.136 21.7689 0.011935 0.064432 6.466272
2006-09-08 07:28:04 51°13.58 2°56.136 21.7697 0.011935 0.064431 6.432563
2006-09-08 07:28:09 51°13.58 2°56.136 21.7707 0.011935 0.064429 6.466272
2006-09-08 07:28:15 51°13.58 2°56.136 21.7719 0.011935 0.064429 6.466272
2006-09-08 07:28:20 51°13.58 2°56.136 21.7727 0.011935 0.064428 6.466272
2006-09-08 07:28:25 51°13.581 2°56.136 21.7732 0.011935 0.064427 6.466272
2006-09-08 07:28:30 51°13.581 2°56.136 21.7733 0.011935 0.064427 6.466272
2006-09-08 07:28:35 51°13.581 2°56.136 21.7743 0.011935 0.064426 6.466272
2006-09-08 07:28:40 51°13.581 2°56.136 21.7748 0.011935 0.064424 6.466272
2006-09-08 07:28:45 51°13.581 2°56.136 21.7755 0.011935 0.064423 6.432563
2006-09-08 07:28:50 51°13.581 2°56.136 21.7757 0.011935 0.064422 6.432563
2006-09-08 07:28:55 51°13.581 2°56.136 21.7769 0.011935 0.064421 6.432563
2006-09-08 07:29:00 51°13.581 2°56.136 21.7765 0.011935 0.064421 6.432563
2006-09-08 07:29:04 51°13.581 2°56.136 21.7784 0.011935 0.06442 6.432563
2006-09-08 07:29:10 51°13.581 2°56.136 21.7802 0.011935 0.064419 6.466272
2006-09-08 07:29:15 51°13.581 2°56.136 21.782 0.011935 0.064417 6.466272
2006-09-08 07:29:20 51°13.581 2°56.136 21.7832 0.011935 0.064417 6.432563
2006-09-08 07:29:24 51°13.581 2°56.136 21.7839 0.011935 0.064415 6.466272
2006-09-08 07:29:30 51°13.58 2°56.136 21.7852 0.011935 0.064415 6.466272
2006-09-08 07:29:35 51°13.58 2°56.136 21.7865 0.011935 0.064414 6.432563
2006-09-08 07:29:40 51°13.58 2°56.136 21.7883 0.011935 0.064413 6.466272
2006-09-08 07:29:45 51°13.58 2°56.136 21.7881 0.011935 0.064412 6.432563
2006-09-08 07:29:50 51°13.58 2°56.136 21.7891 0.011935 0.064411 6.466272
2006-09-08 07:29:55 51°13.58 2°56.136 21.7885 0.011935 0.064409 6.466272
2006-09-08 07:30:00 51°13.58 2°56.136 21.7892 0.011935 0.064409 6.466272
2006-09-08 07:30:05 51°13.581 2°56.136 21.7889 0.011935 0.064408 6.432563
2006-09-08 07:30:09 51°13.581 2°56.136 21.7886 0.011935 0.064408 6.466272
2006-09-08 07:30:15 51°13.581 2°56.136 21.7901 0.011935 0.064406 6.432563
2006-09-08 07:30:20 51°13.581 2°56.136 21.7912 0.011935 0.064405 6.432563
2006-09-08 07:30:25 51°13.581 2°56.136 21.7919 0.011935 0.064403 6.466272
2006-09-08 07:30:30 51°13.581 2°56.137 21.7928 0.011935 0.064403 6.466272
2006-09-08 07:30:35 51°13.581 2°56.136 21.794 0.011935 0.064403 6.432563
2006-09-08 07:30:40 51°13.581 2°56.137 21.7952 0.011935 0.064401 6.432563
2006-09-08 07:30:44 51°13.581 2°56.137 21.795 0.011935 0.0644 6.466272
2006-09-08 07:30:49 51°13.581 2°56.137 21.7944 0.011935 0.064399 6.466272
2006-09-08 07:30:55 51°13.581 2°56.137 21.7936 0.011935 0.064398 6.432563
2006-09-08 07:31:00 51°13.581 2°56.137 21.7935 0.011935 0.064398 6.432563
2006-09-08 07:31:05 51°13.581 2°56.137 21.7925 0.011935 0.064396 6.466272
2006-09-08 07:31:10 51°13.581 2°56.137 21.7921 0.011935 0.064396 6.466272
2006-09-08 07:31:15 51°13.581 2°56.137 21.7931 0.011935 0.064394 6.432563
2006-09-08 07:31:20 51°13.581 2°56.137 21.7936 0.011935 0.064393 6.466272
2006-09-08 07:31:25 51°13.581 2°56.137 21.7924 0.011935 0.064391 6.432563
2006-09-08 07:31:30 51°13.581 2°56.137 21.7944 0.011935 0.064391 6.432563
2006-09-08 07:31:35 51°13.581 2°56.137 21.7912 0.011935 0.06439 6.432563
2006-09-08 07:31:40 51°13.581 2°56.137 21.7932 0.011935 0.064389 6.432563
2006-09-08 07:31:43 51°13.581 2°56.136 21.7956 0.011935 0.064388 6.432563
2006-09-08 07:31:50 51°13.581 2°56.137 21.7959 0.011935 0.064386 6.432563
2006-09-08 07:31:55 51°13.581 2°56.137 21.7967 0.011935 0.064385 6.432563
2006-09-08 07:32:00 51°13.581 2°56.137 21.7976 0.011935 0.064385 6.432563
2006-09-08 07:32:05 51°13.581 2°56.137 21.7988 0.011935 0.064384 6.432563
2006-09-08 07:32:10 51°13.581 2°56.137 21.7951 0.011935 0.064383 6.432563
2006-09-08 07:32:15 51°13.581 2°56.137 21.7957 0.011935 0.064382 6.432563
2006-09-08 07:32:20 51°13.581 2°56.137 21.7945 0.011935 0.064381 6.432563
2006-09-08 07:32:25 51°13.581 2°56.137 21.7973 0.011935 0.064379 6.432563
2006-09-08 07:32:30 51°13.581 2°56.137 21.7984 0.011935 0.064379 6.432563
2006-09-08 07:32:34 51°13.581 2°56.137 21.8 0.011935 0.064378 6.466272
2006-09-08 07:32:40 51°13.581 2°56.137 21.8026 0.011935 0.064377 6.432563
2006-09-08 07:32:45 51°13.581 2°56.137 21.8033 0.011935 0.064376 6.398853
2006-09-08 07:32:50 51°13.581 2°56.137 21.8044 0.011935 0.064374 6.466272
2006-09-08 07:32:55 51°13.581 2°56.137 21.804 0.011935 0.064373 6.398853
2006-09-08 07:33:00 51°13.581 2°56.137 21.8062 0.011935 0.064373 6.398853
2006-09-08 07:33:05 51°13.581 2°56.137 21.8064 0.011935 0.064371 6.432563
2006-09-08 07:33:10 51°13.581 2°56.137 21.8055 0.011935 0.06437 6.466272
2006-09-08 07:33:15 51°13.581 2°56.137 21.8036 0.011935 0.064369 6.432563
2006-09-08 07:33:20 51°13.581 2°56.137 21.8036 0.011935 0.064367 6.398853
2006-09-08 07:33:25 51°13.581 2°56.137 21.8055 0.011935 0.064367 6.432563
2006-09-08 07:33:30 51°13.581 2°56.137 21.8064 0.011935 0.064367 6.432563
2006-09-08 07:33:34 51°13.581 2°56.137 21.8069 0.011935 0.064366 6.432563
2006-09-08 07:33:40 51°13.581 2°56.137 21.8077 0.011935 0.064364 6.432563
2006-09-08 07:33:45 51°13.581 2°56.137 21.81 0.011935 0.064363 6.398853
2006-09-08 07:33:50 51°13.581 2°56.138 21.8107 0.011935 0.064361 6.432563
2006-09-08 07:33:55 51°13.581 2°56.138 21.811 0.011935 0.06436 6.398853
2006-09-08 07:34:00 51°13.581 2°56.138 21.8117 0.011935 0.06436 6.398853
2006-09-08 07:34:05 51°13.581 2°56.138 21.813 0.011935 0.064359 6.398853
2006-09-08 07:34:10 51°13.581 2°56.138 21.812 0.011935 0.064358 6.432563
2006-09-08 07:34:15 51°13.581 2°56.138 21.8152 0.011935 0.064356 6.432563
2006-09-08 07:34:20 51°13.581 2°56.138 21.8169 0.011935 0.064355 6.398853
2006-09-08 07:34:24 51°13.581 2°56.138 21.8184 0.011935 0.064354 6.398853
2006-09-08 07:34:30 51°13.581 2°56.138 21.8213 0.011935 0.064354 6.398853
2006-09-08 07:34:35 51°13.581 2°56.138 21.8207 0.011935 0.064352 6.398853
2006-09-08 07:34:40 51°13.581 2°56.138 21.8206 0.011935 0.064351 6.398853
2006-09-08 07:34:44 51°13.581 2°56.138 21.8214 0.011935 0.06435 6.432563
2006-09-08 07:34:50 51°13.581 2°56.138 21.8223 0.011935 0.064348 6.398853
2006-09-08 07:34:55 51°13.581 2°56.138 21.8236 0.011935 0.064347 6.398853
2006-09-08 07:35:00 51°13.581 2°56.139 21.8248 0.011935 0.064347 6.398853
2006-09-08 07:35:04 51°13.581 2°56.139 21.826 0.011935 0.064346 6.398853
2006-09-08 07:35:10 51°13.581 2°56.139 21.8268 0.011935 0.064344 6.432563
2006-09-08 07:35:15 51°13.581 2°56.139 21.8268 0.011935 0.064344 6.432563
2006-09-08 07:35:20 51°13.581 2°56.139 21.8278 0.011935 0.064342 6.398853
2006-09-08 07:35:24 51°13.581 2°56.139 21.8284 0.011935 0.064341 6.432563
2006-09-08 07:35:30 51°13.581 2°56.139 21.83 0.011935 0.064341 6.432563
2006-09-08 07:35:35 51°13.581 2°56.138 21.831 0.011935 0.064339 6.432563
2006-09-08 07:35:40 51°13.581 2°56.139 21.8324 0.011935 0.064338 6.398853
2006-09-08 07:35:45 51°13.581 2°56.139 21.8329 0.011935 0.064338 6.432563
2006-09-08 07:35:50 51°13.581 2°56.139 21.8333 0.011935 0.064335 6.432563
2006-09-08 07:35:55 51°13.581 2°56.139 21.833 0.011935 0.064335 6.398853
2006-09-08 07:35:59 51°13.581 2°56.139 21.8335 0.011935 0.064335 6.398853
2006-09-08 07:36:05 51°13.581 2°56.139 21.8334 0.011935 0.064333 6.432563
2006-09-08 07:36:10 51°13.581 2°56.139 21.8352 0.011935 0.064332 6.398853
2006-09-08 07:36:15 51°13.582 2°56.139 21.8349 0.011935 0.064331 6.398853
2006-09-08 07:36:20 51°13.582 2°56.139 21.8367 0.011935 0.064329 6.398853
2006-09-08 07:36:24 51°13.582 2°56.139 21.8376 0.011935 0.064328 6.398853
2006-09-08 07:36:30 51°13.583 2°56.139 21.8387 0.011935 0.064328 6.398853
2006-09-08 07:36:35 51°13.583 2°56.139 21.8401 0.011935 0.064327 6.398853
2006-09-08 07:36:40 51°13.583 2°56.139 21.8407 0.011935 0.064326 6.398853
2006-09-08 07:36:45 51°13.583 2°56.139 21.8418 0.011935 0.064324 6.398853
2006-09-08 07:36:50 51°13.583 2°56.139 21.8435 0.011935 0.064323 6.432563
2006-09-08 07:36:55 51°13.583 2°56.139 21.8445 0.011935 0.064322 6.398853
2006-09-08 07:37:00 51°13.583 2°56.139 21.8459 0.011935 0.064322 6.398853
2006-09-08 07:37:05 51°13.582 2°56.138 21.8454 0.011935 0.064321 6.398853
2006-09-08 07:37:09 51°13.582 2°56.138 21.847 0.011935 0.06432 6.398853
2006-09-08 07:37:15 51°13.582 2°56.138 21.8482 0.011935 0.064318 6.398853
2006-09-08 07:37:20 51°13.582 2°56.138 21.8497 0.011935 0.064317 6.398853
2006-09-08 07:37:25 51°13.582 2°56.138 21.8498 0.011935 0.064315 6.365144
2006-09-08 07:37:30 51°13.582 2°56.138 21.8507 0.011935 0.064315 6.365144
2006-09-08 07:37:35 51°13.582 2°56.138 21.8506 0.011935 0.064314 6.398853
2006-09-08 07:37:40 51°13.583 2°56.139 21.8516 0.011935 0.064313 6.398853
2006-09-08 07:37:45 51°13.585 2°56.141 21.8513 0.011935 0.064312 6.398853
2006-09-08 07:37:50 51°13.586 2°56.142 21.8519 0.011935 0.06431 6.365144
2006-09-08 07:37:55 51°13.586 2°56.143 21.852 0.011935 0.064309 6.365144
2006-09-08 07:38:00 51°13.587 2°56.143 21.8519 0.011935 0.064309 6.365144
2006-09-08 07:38:05 51°13.587 2°56.143 21.854 0.011935 0.064307 6.398853
2006-09-08 07:38:10 51°13.587 2°56.142 21.8538 0.011935 0.064306 6.432563
2006-09-08 07:38:15 51°13.586 2°56.142 21.8537 0.011935 0.064306 6.398853
2006-09-08 07:38:20 51°13.585 2°56.141 21.8523 0.011935 0.064304 6.365144
2006-09-08 07:38:25 51°13.585 2°56.141 21.8546 0.011935 0.064303 6.398853
2006-09-08 07:38:30 51°13.584 2°56.139 21.8551 0.011935 0.064303 6.398853
2006-09-08 07:38:34 51°13.583 2°56.138 21.8554 0.011935 0.064302 6.365144
2006-09-08 07:38:40 51°13.582 2°56.137 21.8565 0.011935 0.0643 6.398853
2006-09-08 07:38:45 51°13.582 2°56.137 21.858 0.011935 0.064299 6.398853
2006-09-08 07:38:50 51°13.581 2°56.136 21.8583 0.011935 0.064298 6.398853
2006-09-08 07:38:55 51°13.581 2°56.136 21.8586 0.011935 0.064297 6.365144
2006-09-08 07:39:00 51°13.581 2°56.136 21.86 0.011935 0.064297 6.365144
2006-09-08 07:39:04 51°13.58 2°56.136 21.8606 0.011935 0.064296 6.398853
2006-09-08 07:39:10 51°13.58 2°56.136 21.8607 0.011935 0.064294 6.398853
2006-09-08 07:39:15 51°13.58 2°56.136 21.8622 0.011935 0.064294 6.365144
2006-09-08 07:39:20 51°13.58 2°56.136 21.8628 0.011935 0.064292 6.398853
2006-09-08 07:39:25 51°13.58 2°56.136 21.8633 0.011935 0.06429 6.365144
2006-09-08 07:39:30 51°13.58 2°56.136 21.8651 0.011935 0.06429 6.365144
2006-09-08 07:39:35 51°13.58 2°56.137 21.8649 0.011935 0.064289 6.398853
2006-09-08 07:39:40 51°13.58 2°56.137 21.8659 0.011935 0.064288 6.398853
2006-09-08 07:39:45 51°13.581 2°56.137 21.8668 0.011935 0.064287 6.365144
2006-09-08 07:39:50 51°13.581 2°56.138 21.8675 0.011935 0.064286 6.365144
2006-09-08 07:39:55 51°13.581 2°56.138 21.8675 0.011935 0.064285 6.365144
2006-09-08 07:40:00 51°13.58 2°56.138 21.8686 0.011935 0.064285 6.365144
2006-09-08 07:40:05 51°13.58 2°56.138 21.8699 0.011935 0.064283 6.398853
2006-09-08 07:40:10 51°13.581 2°56.138 21.8693 0.011935 0.064283 6.365144
2006-09-08 07:40:15 51°13.581 2°56.139 21.8703 0.011935 0.06428 6.365144
2006-09-08 07:40:20 51°13.581 2°56.139 21.8719 0.011935 0.064279 6.398853
2006-09-08 07:40:24 51°13.581 2°56.139 21.8704 0.011935 0.064278 6.365144
2006-09-08 07:40:30 51°13.581 2°56.139 21.8711 0.011935 0.064278 6.365144
2006-09-08 07:40:35 51°13.581 2°56.139 21.8725 0.011935 0.064278 6.365144
2006-09-08 07:40:40 51°13.58 2°56.139 21.8733 0.011935 0.064277 6.365144
2006-09-08 07:40:45 51°13.58 2°56.138 21.875 0.011935 0.064274 6.365144
2006-09-08 07:40:50 51°13.579 2°56.138 21.8763 0.011935 0.064274 6.365144
2006-09-08 07:40:55 51°13.579 2°56.138 21.8766 0.011935 0.064272 6.398853
2006-09-08 07:41:00 51°13.579 2°56.138 21.8778 0.011935 0.064272 6.398853
2006-09-08 07:41:05 51°13.579 2°56.138 21.8794 0.011935 0.064271 6.398853
2006-09-08 07:41:10 51°13.579 2°56.138 21.8801 0.011935 0.06427 6.365144
2006-09-08 07:41:15 51°13.579 2°56.137 21.8803 0.011935 0.064268 6.365144
2006-09-08 07:41:20 51°13.578 2°56.137 21.8811 0.011935 0.064268 6.365144
2006-09-08 07:41:25 51°13.578 2°56.137 21.8808 0.011935 0.064267 6.398853
2006-09-08 07:41:30 51°13.578 2°56.137 21.8823 0.011935 0.064267 6.398853
2006-09-08 07:41:34 51°13.578 2°56.137 21.8823 0.011935 0.064265 6.398853
2006-09-08 07:41:39 51°13.578 2°56.137 21.8837 0.011935 0.064264 6.365144
2006-09-08 07:41:45 51°13.578 2°56.138 21.8848 0.011935 0.064262 6.365144
2006-09-08 07:41:50 51°13.578 2°56.138 21.8843 0.011935 0.064262 6.365144
2006-09-08 07:41:55 51°13.578 2°56.137 21.8857 0.011935 0.064261 6.331435
2006-09-08 07:42:00 51°13.578 2°56.138 21.8859 0.011935 0.064261 6.331435
2006-09-08 07:42:04 51°13.578 2°56.138 21.8867 0.011935 0.064259 6.365144
2006-09-08 07:42:10 51°13.578 2°56.138 21.8874 0.011935 0.064258 6.398853
2006-09-08 07:42:15 51°13.578 2°56.138 21.8869 0.011935 0.064256 6.365144
2006-09-08 07:42:20 51°13.579 2°56.138 21.886 0.011935 0.064255 6.398853
2006-09-08 07:42:24 51°13.579 2°56.138 21.8865 0.011935 0.064254 6.365144
2006-09-08 07:42:30 51°13.578 2°56.138 21.8873 0.011935 0.064254 6.365144
2006-09-08 07:42:35 51°13.578 2°56.138 21.8877 0.011935 0.064253 6.365144
2006-09-08 07:42:40 51°13.578 2°56.138 21.8875 0.011935 0.064251 6.365144
2006-09-08 07:42:44 51°13.578 2°56.138 21.8877 0.011935 0.06425 6.365144
2006-09-08 07:42:50 51°13.578 2°56.138 21.8877 0.011935 0.064249 6.331435
2006-09-08 07:42:55 51°13.578 2°56.138 21.8854 0.011935 0.064248 6.365144
2006-09-08 07:43:00 51°13.578 2°56.138 21.8843 0.011935 0.064248 6.365144
2006-09-08 07:43:05 51°13.578 2°56.138 21.8859 0.011935 0.064246 6.331435
2006-09-08 07:43:10 51°13.578 2°56.138 21.8873 0.011935 0.064245 6.365144
2006-09-08 07:43:15 51°13.579 2°56.138 21.888 0.011935 0.064243 6.331435
2006-09-08 07:43:20 51°13.579 2°56.139 21.8874 0.011935 0.064242 6.331435
2006-09-08 07:43:25 51°13.579 2°56.139 21.8894 0.011935 0.064241 6.365144
2006-09-08 07:43:30 51°13.58 2°56.139 21.8907 0.011935 0.064241 6.365144
2006-09-08 07:43:35 51°13.58 2°56.139 21.8923 0.011935 0.064239 6.365144
2006-09-08 07:43:40 51°13.581 2°56.14 21.89 0.011935 0.064239 6.331435
2006-09-08 07:43:45 51°13.581 2°56.14 21.8879 0.011935 0.064237 6.331435
2006-09-08 07:43:50 51°13.581 2°56.14 21.8885 0.011935 0.064236 6.365144
2006-09-08 07:43:55 51°13.582 2°56.14 21.8908 0.011935 0.064234 6.398853
2006-09-08 07:44:00 51°13.582 2°56.141 21.8911 0.011935 0.064234 6.398853
2006-09-08 07:44:05 51°13.582 2°56.141 21.8922 0.011935 0.064233 6.331435
2006-09-08 07:44:10 51°13.583 2°56.141 21.8945 0.011935 0.064232 6.331435
2006-09-08 07:44:15 51°13.583 2°56.141 21.8965 0.011935 0.06423 6.331435
2006-09-08 07:44:20 51°13.583 2°56.141 21.8967 0.011935 0.064229 6.398853
2006-09-08 07:44:24 51°13.583 2°56.141 21.8983 0.011935 0.064228 6.365144
2006-09-08 07:44:30 51°13.584 2°56.141 21.8985 0.011935 0.064228 6.365144
2006-09-08 07:44:35 51°13.584 2°56.141 21.9011 0.011935 0.064227 6.331435
2006-09-08 07:44:40 51°13.584 2°56.141 21.9012 0.011935 0.064225 6.365144
2006-09-08 07:44:44 51°13.584 2°56.141 21.9026 0.011935 0.064224 6.365144
2006-09-08 07:44:49 51°13.584 2°56.141 21.9029 0.011935 0.064222 6.331435
2006-09-08 07:44:55 51°13.584 2°56.141 21.9037 0.011935 0.064222 6.331435
2006-09-08 07:45:00 51°13.584 2°56.141 21.9045 0.011935 0.064222 6.331435
2006-09-08 07:45:04 51°13.583 2°56.141 21.9051 0.011935 0.06422 6.331435
2006-09-08 07:45:10 51°13.584 2°56.141 21.9044 0.011935 0.064219 6.398853
2006-09-08 07:45:15 51°13.584 2°56.14 21.906 0.011935 0.064218 6.365144
2006-09-08 07:45:20 51°13.584 2°56.14 21.9067 0.011935 0.064216 6.331435
2006-09-08 07:45:25 51°13.584 2°56.141 21.9071 0.011935 0.064216 6.331435
2006-09-08 07:45:30 51°13.584 2°56.141 21.9082 0.011935 0.064216 6.331435
2006-09-08 07:45:35 51°13.584 2°56.141 21.9079 0.011935 0.064214 6.297725
2006-09-08 07:45:40 51°13.584 2°56.141 21.9092 0.011935 0.064212 6.331435
2006-09-08 07:45:45 51°13.584 2°56.14 21.9084 0.011935 0.064211 6.331435
2006-09-08 07:45:50 51°13.584 2°56.14 21.9091 0.011935 0.064211 6.365144
2006-09-08 07:45:55 51°13.584 2°56.14 21.9096 0.011935 0.064209 6.365144
2006-09-08 07:46:00 51°13.583 2°56.14 21.9106 0.011935 0.064209 6.365144
2006-09-08 07:46:04 51°13.583 2°56.14 21.9115 0.011935 0.064208 6.365144
2006-09-08 07:46:10 51°13.583 2°56.141 21.9126 0.011935 0.064207 6.365144
2006-09-08 07:46:15 51°13.583 2°56.14 21.9119 0.011935 0.064205 6.331435
2006-09-08 07:46:20 51°13.583 2°56.14 21.9129 0.011935 0.064204 6.331435
2006-09-08 07:46:24 51°13.583 2°56.14 21.9146 0.011935 0.064202 6.365144
2006-09-08 07:46:30 51°13.583 2°56.141 21.9153 0.011935 0.064202 6.365144
2006-09-08 07:46:35 51°13.583 2°56.141 21.9152 0.011935 0.064202 6.331435
2006-09-08 07:46:40 51°13.583 2°56.14 21.9163 0.011935 0.0642 6.331435
2006-09-08 07:46:45 51°13.583 2°56.14 21.9183 0.011935 0.064199 6.331435
2006-09-08 07:46:50 51°13.583 2°56.14 21.9185 0.011935 0.064198 6.331435
2006-09-08 07:46:54 51°13.583 2°56.14 21.9202 0.011935 0.064196 6.331435
2006-09-08 07:47:00 51°13.583 2°56.14 21.9203 0.011935 0.064196 6.331435
2006-09-08 07:47:05 51°13.583 2°56.14 21.9247 0.011935 0.064195 6.331435
2006-09-08 07:47:10 51°13.583 2°56.14 21.9251 0.011935 0.064193 6.331435
2006-09-08 07:47:15 51°13.583 2°56.14 21.927 0.011935 0.064192 6.297725
2006-09-08 07:47:20 51°13.583 2°56.14 21.9257 0.011935 0.064191 6.331435
2006-09-08 07:47:26 51°13.583 2°56.14 21.9296 0.011935 0.06419 6.297725
2006-09-08 07:47:30 51°13.583 2°56.14 21.9285 0.011935 0.06419 6.297725
2006-09-08 07:47:35 51°13.583 2°56.14 21.9303 0.011935 0.064188 6.365144
2006-09-08 07:47:40 51°13.583 2°56.14 21.9286 0.011935 0.064187 6.331435
2006-09-08 07:47:44 51°13.583 2°56.14 21.9306 0.011935 0.064186 6.331435
2006-09-08 07:47:50 51°13.583 2°56.14 21.931 0.011935 0.064185 6.297725
2006-09-08 07:47:55 51°13.583 2°56.14 21.9318 0.011935 0.064184 6.331435
2006-09-08 07:48:00 51°13.583 2°56.14 21.9344 0.011935 0.064184 6.331435
2006-09-08 07:48:05 51°13.583 2°56.14 21.9345 0.011935 0.064182 6.331435
2006-09-08 07:48:10 51°13.584 2°56.14 21.9356 0.011935 0.064181 6.297725
2006-09-08 07:48:15 51°13.584 2°56.139 21.936 0.011935 0.064179 6.331435
2006-09-08 07:48:20 51°13.584 2°56.139 21.9366 0.011935 0.064178 6.297725
2006-09-08 07:48:24 51°13.584 2°56.139 21.9389 0.011935 0.064176 6.331435
2006-09-08 07:48:30 51°13.581 2°56.137 21.9389 0.011935 0.064176 6.331435
2006-09-08 07:48:35 51°13.58 2°56.136 21.94 0.011935 0.064176 6.331435
2006-09-08 07:48:40 51°13.58 2°56.136 21.9406 0.011935 0.064175 6.331435
2006-09-08 07:48:44 51°13.58 2°56.136 21.9417 0.011935 0.064173 6.331435
2006-09-08 07:48:50 51°13.58 2°56.136 21.9406 0.011935 0.064172 6.331435
2006-09-08 07:48:55 51°13.58 2°56.136 21.9427 0.011935 0.064171 6.331435
2006-09-08 07:49:00 51°13.58 2°56.136 21.9433 0.011935 0.064171 6.331435
2006-09-08 07:49:05 51°13.58 2°56.136 21.9453 0.011935 0.06417 6.331435
2006-09-08 07:49:10 51°13.579 2°56.136 21.9447 0.011935 0.064168 6.365144
2006-09-08 07:49:15 51°13.58 2°56.136 21.9442 0.011935 0.064168 6.331435
2006-09-08 07:49:20 51°13.58 2°56.136 21.9452 0.011935 0.064166 6.331435
2006-09-08 07:49:25 51°13.58 2°56.136 21.9456 0.011935 0.064164 6.297725
2006-09-08 07:49:30 51°13.581 2°56.136 21.9469 0.011935 0.064164 6.297725
2006-09-08 07:49:35 51°13.581 2°56.137 21.9455 0.011935 0.064163 6.331435
2006-09-08 07:49:40 51°13.581 2°56.137 21.946 0.011935 0.064162 6.331435
2006-09-08 07:49:44 51°13.581 2°56.137 21.9461 0.011935 0.064161 6.297725
2006-09-08 07:49:50 51°13.582 2°56.138 21.9456 0.011935 0.064159 6.297725
2006-09-08 07:49:55 51°13.582 2°56.138 21.9476 0.011935 0.064158 6.297725
2006-09-08 07:50:00 51°13.582 2°56.138 21.9476 0.011935 0.064158 6.297725
2006-09-08 07:50:05 51°13.582 2°56.138 21.9481 0.011935 0.064157 6.297725
2006-09-08 07:50:10 51°13.582 2°56.138 21.9487 0.011935 0.064157 6.331435
2006-09-08 07:50:15 51°13.582 2°56.138 21.95 0.011935 0.064155 6.331435
2006-09-08 07:50:20 51°13.581 2°56.138 21.9517 0.011935 0.064154 6.331435
2006-09-08 07:50:24 51°13.582 2°56.138 21.9518 0.011935 0.064152 6.297725
2006-09-08 07:50:30 51°13.582 2°56.138 21.9524 0.011935 0.064152 6.297725
2006-09-08 07:50:35 51°13.582 2°56.138 21.9534 0.011935 0.064151 6.297725
2006-09-08 07:50:40 51°13.58 2°56.137 21.9541 0.011935 0.06415 6.331435
2006-09-08 07:50:44 51°13.58 2°56.137 21.955 0.011935 0.064149 6.331435
2006-09-08 07:50:50 51°13.579 2°56.137 21.9542 0.011935 0.064148 6.331435
2006-09-08 07:50:55 51°13.579 2°56.137 21.955 0.012039 0.06466 6.297725
2006-09-08 07:51:00 51°13.58 2°56.137 21.958 0.012039 0.06466 6.297725
2006-09-08 07:51:04 51°13.58 2°56.137 21.9579 0.011935 0.064145 6.331435
2006-09-08 07:51:09 51°13.58 2°56.137 21.9588 0.011935 0.064144 6.297725
2006-09-08 07:51:14 51°13.58 2°56.137 21.9591 0.011935 0.064143 6.297725
2006-09-08 07:51:20 51°13.58 2°56.137 21.96 0.011935 0.064141 6.331435
2006-09-08 07:51:26 51°13.58 2°56.137 21.9579 0.011935 0.06414 6.297725
2006-09-08 07:51:30 51°13.579 2°56.136 21.9592 0.011935 0.06414 6.297725
2006-09-08 07:51:35 51°13.579 2°56.136 21.9597 0.011935 0.064139 6.331435
2006-09-08 07:51:40 51°13.579 2°56.136 21.9596 0.011935 0.064137 6.297725
2006-09-08 07:51:45 51°13.579 2°56.136 21.9618 0.011935 0.064136 6.264016
2006-09-08 07:51:50 51°13.58 2°56.136 21.9607 0.011935 0.064134 6.297725
2006-09-08 07:51:55 51°13.58 2°56.137 21.9613 0.011935 0.064134 6.297725
2006-09-08 07:52:00 51°13.58 2°56.136 21.9616 0.011935 0.064134 6.297725
2006-09-08 07:52:05 51°13.579 2°56.136 21.9617 0.011935 0.064133 6.297725
2006-09-08 07:52:10 51°13.58 2°56.136 21.9634 0.011935 0.064131 6.331435
2006-09-08 07:52:15 51°13.58 2°56.136 21.9641 0.011935 0.06413 6.297725
2006-09-08 07:52:20 51°13.58 2°56.136 21.9649 0.011935 0.064129 6.264016
2006-09-08 07:52:24 51°13.58 2°56.136 21.9653 0.011935 0.064127 6.331435
2006-09-08 07:52:30 51°13.58 2°56.136 21.9659 0.011935 0.064127 6.331435
2006-09-08 07:52:35 51°13.58 2°56.136 21.9677 0.012039 0.064639 6.264016
2006-09-08 07:52:40 51°13.58 2°56.136 21.969 0.011935 0.064126 6.297725
2006-09-08 07:52:44 51°13.58 2°56.136 21.9696 0.012039 0.064637 6.297725
2006-09-08 07:52:50 51°13.58 2°56.136 21.9693 0.011935 0.064122 6.331435
2006-09-08 07:52:55 51°13.579 2°56.136 21.9707 0.012039 0.064635 6.264016
2006-09-08 07:53:00 51°13.579 2°56.136 21.9702 0.012039 0.064635 6.264016
2006-09-08 07:53:05 51°13.58 2°56.136 21.9701 0.011935 0.06412 6.264016
2006-09-08 07:53:10 51°13.58 2°56.136 21.9711 0.011935 0.064118 6.297725
2006-09-08 07:53:15 51°13.58 2°56.136 21.9715 0.011935 0.064118 6.331435
2006-09-08 07:53:20 51°13.58 2°56.136 21.9714 0.011935 0.064116 6.331435
2006-09-08 07:53:25 51°13.58 2°56.136 21.9741 0.011935 0.064115 6.331435
2006-09-08 07:53:30 51°13.58 2°56.136 21.9739 0.011935 0.064115 6.331435
2006-09-08 07:53:35 51°13.58 2°56.136 21.9745 0.012039 0.064627 6.331435
2006-09-08 07:53:39 51°13.58 2°56.136 21.9746 0.012039 0.064626 6.264016
2006-09-08 07:53:45 51°13.58 2°56.136 21.9743 0.011935 0.064111 6.264016
2006-09-08 07:53:50 51°13.58 2°56.136 21.9765 0.011935 0.064109 6.264016
2006-09-08 07:53:55 51°13.579 2°56.136 21.9773 0.011935 0.064108 6.264016
2006-09-08 07:54:00 51°13.579 2°56.136 21.9763 0.011935 0.064108 6.264016
2006-09-08 07:54:05 51°13.579 2°56.136 21.9762 0.011935 0.064107 6.297725
2006-09-08 07:54:10 51°13.579 2°56.136 21.9787 0.011935 0.064106 6.297725
2006-09-08 07:54:15 51°13.579 2°56.136 21.9784 0.011935 0.064105 6.264016
2006-09-08 07:54:20 51°13.579 2°56.136 21.9785 0.012039 0.064617 6.297725
2006-09-08 07:54:25 51°13.579 2°56.137 21.9796 0.012039 0.064615 6.297725
2006-09-08 07:54:30 51°13.579 2°56.137 21.9808 0.012039 0.064615 6.297725
2006-09-08 07:54:35 51°13.578 2°56.137 21.979 0.011935 0.064101 6.297725
2006-09-08 07:54:40 51°13.578 2°56.137 21.9809 0.011935 0.0641 6.297725
2006-09-08 07:54:44 51°13.578 2°56.137 21.9809 0.012039 0.064612 6.331435
2006-09-08 07:54:50 51°13.578 2°56.137 21.9823 0.011935 0.064098 6.297725
2006-09-08 07:54:55 51°13.578 2°56.137 21.9832 0.011935 0.064097 6.331435
2006-09-08 07:55:00 51°13.578 2°56.137 21.9834 0.011935 0.064097 6.331435
2006-09-08 07:55:05 51°13.578 2°56.137 21.9832 0.012039 0.064609 6.264016
2006-09-08 07:55:10 51°13.578 2°56.137 21.9845 0.012039 0.064607 6.297725
2006-09-08 07:55:15 51°13.578 2°56.137 21.9896 0.012039 0.064606 6.331435
2006-09-08 07:55:20 51°13.578 2°56.137 21.991 0.011935 0.064091 6.297725
2006-09-08 07:55:25 51°13.578 2°56.137 21.9926 0.011935 0.06409 6.297725
2006-09-08 07:55:30 51°13.578 2°56.137 21.9925 0.011935 0.06409 6.297725
2006-09-08 07:55:35 51°13.578 2°56.137 21.9922 0.011935 0.064089 6.297725
2006-09-08 07:55:40 51°13.578 2°56.137 21.9938 0.012039 0.064601 6.264016
2006-09-08 07:55:45 51°13.578 2°56.137 21.9941 0.011935 0.064087 6.264016
2006-09-08 07:55:50 51°13.578 2°56.137 21.9943 0.011935 0.064086 6.264016
2006-09-08 07:55:55 51°13.578 2°56.137 21.9953 0.011935 0.064084 6.297725
2006-09-08 07:56:00 51°13.578 2°56.137 21.9937 0.011935 0.064084 6.297725
2006-09-08 07:56:05 51°13.578 2°56.137 21.9952 0.012039 0.064597 6.331435
2006-09-08 07:56:10 51°13.578 2°56.137 21.9955 0.011935 0.064083 6.297725
2006-09-08 07:56:15 51°13.578 2°56.137 21.9948 0.012039 0.064595 6.264016
2006-09-08 07:56:19 51°13.578 2°56.136 21.9945 0.012039 0.064593 6.264016
2006-09-08 07:56:25 51°13.579 2°56.135 21.9945 0.011935 0.064078 6.297725
2006-09-08 07:56:30 51°13.579 2°56.135 21.9954 0.011935 0.064078 6.297725
2006-09-08 07:56:35 51°13.58 2°56.134 21.9952 0.011935 0.064078 6.264016
2006-09-08 07:56:40 51°13.58 2°56.133 21.9952 0.012039 0.06459 6.297725
2006-09-08 07:56:44 51°13.58 2°56.133 21.9972 0.012039 0.064589 6.297725
2006-09-08 07:56:50 51°13.58 2°56.133 21.9982 0.012039 0.064588 6.297725
2006-09-08 07:56:55 51°13.58 2°56.132 22.0002 0.012039 0.064586 6.297725
2006-09-08 07:57:00 51°13.581 2°56.132 22.0012 0.012039 0.064586 6.297725
2006-09-08 07:57:04 51°13.581 2°56.132 22.0014 0.011935 0.064073 6.297725
2006-09-08 07:57:09 51°13.581 2°56.132 22.0021 0.012039 0.064585 6.297725
2006-09-08 07:57:15 51°13.581 2°56.132 22.0035 0.012039 0.064584 6.297725
2006-09-08 07:57:20 51°13.58 2°56.132 22.0037 0.012039 0.064583 6.297725
2006-09-08 07:57:24 51°13.58 2°56.132 22.0054 0.012039 0.064581 6.230306
2006-09-08 07:57:30 51°13.58 2°56.132 22.0054 0.012039 0.064581 6.230306
2006-09-08 07:57:35 51°13.58 2°56.132 22.0051 0.012039 0.06458 6.297725
2006-09-08 07:57:40 51°13.58 2°56.132 22.0057 0.012039 0.06458 6.297725
2006-09-08 07:57:45 51°13.58 2°56.132 22.006 0.012039 0.064579 6.264016
2006-09-08 07:57:50 51°13.58 2°56.132 22.0071 0.011935 0.064065 6.297725
2006-09-08 07:57:55 51°13.58 2°56.132 22.0082 0.012039 0.064577 6.264016
2006-09-08 07:58:00 51°13.581 2°56.133 22.0102 0.012039 0.064577 6.264016
2006-09-08 07:58:05 51°13.58 2°56.133 22.0095 0.011935 0.064063 6.264016
2006-09-08 07:58:10 51°13.58 2°56.133 22.0088 0.012039 0.064575 6.297725
2006-09-08 07:58:15 51°13.581 2°56.133 22.0096 0.012039 0.064574 6.264016
2006-09-08 07:58:20 51°13.581 2°56.133 22.0105 0.012039 0.064574 6.264016
2006-09-08 07:58:25 51°13.581 2°56.133 22.0114 0.012039 0.064572 6.297725
2006-09-08 07:58:30 51°13.581 2°56.134 22.0114 0.012039 0.064572 6.297725
2006-09-08 07:58:35 51°13.581 2°56.134 22.0125 0.012039 0.064571 6.264016
2006-09-08 07:58:40 51°13.581 2°56.134 22.0128 0.012039 0.064571 6.297725
2006-09-08 07:58:44 51°13.581 2°56.134 22.014 0.012039 0.064569 6.264016
2006-09-08 07:58:50 51°13.581 2°56.134 22.014 0.012039 0.064569 6.264016
2006-09-08 07:58:55 51°13.581 2°56.134 22.0121 0.012039 0.064568 6.230306
2006-09-08 07:59:00 51°13.581 2°56.134 22.0142 0.012039 0.064568 6.230306
2006-09-08 07:59:04 51°13.581 2°56.134 22.0143 0.012039 0.064567 6.264016
2006-09-08 07:59:10 51°13.581 2°56.134 22.0144 0.012039 0.064566 6.264016
2006-09-08 07:59:15 51°13.581 2°56.134 22.0156 0.012039 0.064566 6.264016
2006-09-08 07:59:20 51°13.581 2°56.134 22.0158 0.012039 0.064564 6.264016
2006-09-08 07:59:25 51°13.581 2°56.134 22.0179 0.011935 0.064051 6.264016
2006-09-08 07:59:30 51°13.581 2°56.134 22.018 0.011935 0.064051 6.264016
2006-09-08 07:59:35 51°13.581 2°56.134 22.0185 0.012039 0.064562 6.297725
2006-09-08 07:59:40 51°13.581 2°56.134 22.019 0.012039 0.064561 6.264016
2006-09-08 07:59:44 51°13.581 2°56.134 22.0197 0.012039 0.06456 6.297725
2006-09-08 07:59:50 51°13.581 2°56.134 22.0209 0.012039 0.06456 6.264016
2006-09-08 07:59:55 51°13.581 2°56.134 22.0203 0.012039 0.064558 6.297725
2006-09-08 08:00:00 51°13.581 2°56.134 22.0211 0.012039 0.064558 6.297725
2006-09-08 08:00:04 51°13.581 2°56.134 22.022 0.012039 0.064557 6.264016
2006-09-08 08:00:10 51°13.581 2°56.134 22.0218 0.012039 0.064557 6.264016
2006-09-08 08:00:15 51°13.581 2°56.134 22.0237 0.012039 0.064555 6.297725
2006-09-08 08:00:20 51°13.581 2°56.134 22.0219 0.012039 0.064554 6.297725
2006-09-08 08:00:25 51°13.581 2°56.134 22.0241 0.012039 0.064553 6.264016
2006-09-08 08:00:30 51°13.581 2°56.134 22.0249 0.012039 0.064553 6.264016
2006-09-08 08:00:35 51°13.581 2°56.134 22.0224 0.012039 0.064552 6.297725
2006-09-08 08:00:40 51°13.581 2°56.134 22.0244 0.012039 0.064551 6.264016
2006-09-08 08:00:45 51°13.581 2°56.134 22.0252 0.012039 0.06455 6.264016
2006-09-08 08:00:50 51°13.581 2°56.134 22.0263 0.012039 0.064549 6.264016
2006-09-08 08:00:55 51°13.581 2°56.134 22.027 0.012039 0.064548 6.264016
2006-09-08 08:01:00 51°13.581 2°56.134 22.0265 0.012039 0.064548 6.264016
2006-09-08 08:01:05 51°13.582 2°56.134 22.028 0.012039 0.064546 6.264016
2006-09-08 08:01:10 51°13.582 2°56.134 22.0271 0.012039 0.064546 6.264016
2006-09-08 08:01:15 51°13.582 2°56.134 22.0279 0.012039 0.064545 6.264016
2006-09-08 08:01:20 51°13.582 2°56.134 22.0271 0.012039 0.064543 6.230306
2006-09-08 08:01:25 51°13.582 2°56.134 22.0297 0.012039 0.064543 6.264016
2006-09-08 08:01:30 51°13.582 2°56.135 22.0291 0.012039 0.064543 6.264016
2006-09-08 08:01:35 51°13.582 2°56.135 22.0283 0.012039 0.064541 6.230306
2006-09-08 08:01:40 51°13.582 2°56.135 22.0299 0.012039 0.06454 6.230306
2006-09-08 08:01:45 51°13.582 2°56.135 22.0302 0.012039 0.06454 6.264016
2006-09-08 08:01:50 51°13.582 2°56.135 22.0305 0.012039 0.064538 6.264016
2006-09-08 08:01:55 51°13.582 2°56.135 22.0292 0.012039 0.064537 6.264016
2006-09-08 08:02:00 51°13.582 2°56.135 22.0308 0.012039 0.064537 6.264016
2006-09-08 08:02:05 51°13.582 2°56.135 22.032 0.012039 0.064537 6.264016
2006-09-08 08:02:10 51°13.582 2°56.135 22.0299 0.012039 0.064535 6.230306
2006-09-08 08:02:14 51°13.582 2°56.135 22.03 0.012039 0.064534 6.264016
2006-09-08 08:02:19 51°13.582 2°56.136 22.0296 0.012039 0.064533 6.297725
2006-09-08 08:02:25 51°13.583 2°56.136 22.0327 0.012039 0.064531 6.230306
2006-09-08 08:02:29 51°13.583 2°56.136 22.0324 0.012039 0.064531 6.230306
2006-09-08 08:02:35 51°13.583 2°56.136 22.0334 0.012039 0.064531 6.230306
2006-09-08 08:02:40 51°13.583 2°56.136 22.032 0.012039 0.064529 6.230306
2006-09-08 08:02:45 51°13.583 2°56.136 22.033 0.012039 0.064529 6.230306
2006-09-08 08:02:50 51°13.583 2°56.136 22.0354 0.012039 0.064528 6.264016
2006-09-08 08:02:55 51°13.583 2°56.136 22.0364 0.012039 0.064526 6.230306
2006-09-08 08:03:00 51°13.583 2°56.136 22.0372 0.012039 0.064526 6.230306
2006-09-08 08:03:04 51°13.583 2°56.136 22.0367 0.012039 0.064526 6.230306
2006-09-08 08:03:10 51°13.581 2°56.135 22.0371 0.012039 0.064524 6.230306
2006-09-08 08:03:15 51°13.58 2°56.135 22.038 0.012039 0.064523 6.264016
2006-09-08 08:03:20 51°13.58 2°56.135 22.0391 0.012039 0.064522 6.264016
2006-09-08 08:03:25 51°13.58 2°56.135 22.0404 0.012039 0.064521 6.264016
2006-09-08 08:03:30 51°13.58 2°56.135 22.0392 0.012039 0.064521 6.264016
2006-09-08 08:03:35 51°13.58 2°56.135 22.0417 0.012039 0.06452 6.230306
2006-09-08 08:03:40 51°13.581 2°56.135 22.0415 0.012039 0.064518 6.230306
2006-09-08 08:03:44 51°13.581 2°56.135 22.0428 0.012039 0.064518 6.264016
2006-09-08 08:03:50 51°13.58 2°56.135 22.0435 0.012039 0.064517 6.264016
2006-09-08 08:03:55 51°13.58 2°56.135 22.044 0.012039 0.064515 6.230306
2006-09-08 08:04:00 51°13.581 2°56.135 22.0461 0.012039 0.064515 6.230306
2006-09-08 08:04:05 51°13.581 2°56.136 22.0471 0.012039 0.064514 6.230306
2006-09-08 08:04:10 51°13.581 2°56.136 22.0475 0.012039 0.064514 6.264016
2006-09-08 08:04:15 51°13.581 2°56.136 22.0492 0.012039 0.064512 6.230306
2006-09-08 08:04:20 51°13.58 2°56.135 22.0481 0.012039 0.064511 6.230306
2006-09-08 08:04:25 51°13.58 2°56.135 22.0513 0.012039 0.06451 6.230306
2006-09-08 08:04:29 51°13.58 2°56.135 22.0546 0.012039 0.06451 6.230306
2006-09-08 08:04:35 51°13.581 2°56.135 22.058 0.012039 0.064508 6.264016
2006-09-08 08:04:40 51°13.581 2°56.136 22.0597 0.012039 0.064507 6.230306
2006-09-08 08:04:45 51°13.581 2°56.136 22.0587 0.012039 0.064506 6.264016
2006-09-08 08:04:50 51°13.581 2°56.136 22.0602 0.012039 0.064504 6.297725
2006-09-08 08:04:55 51°13.581 2°56.136 22.0605 0.012039 0.064504 6.264016
2006-09-08 08:05:00 51°13.582 2°56.136 22.06 0.012039 0.064504 6.264016
2006-09-08 08:05:04 51°13.582 2°56.136 22.0591 0.012039 0.064503 6.230306
2006-09-08 08:05:09 51°13.582 2°56.136 22.0601 0.012039 0.064501 6.230306
2006-09-08 08:05:15 51°13.581 2°56.136 22.0607 0.012039 0.0645 6.264016
2006-09-08 08:05:20 51°13.581 2°56.136 22.0609 0.012039 0.064499 6.264016
2006-09-08 08:05:25 51°13.581 2°56.136 22.0619 0.012039 0.064497 6.230306
2006-09-08 08:05:30 51°13.581 2°56.136 22.0627 0.012039 0.064497 6.230306
2006-09-08 08:05:35 51°13.581 2°56.136 22.0621 0.012039 0.064496 6.230306
2006-09-08 08:05:40 51°13.581 2°56.135 22.0631 0.012039 0.064495 6.230306
2006-09-08 08:05:45 51°13.581 2°56.135 22.0623 0.012039 0.064494 6.264016
2006-09-08 08:05:50 51°13.582 2°56.136 22.0626 0.012039 0.064493 6.230306
2006-09-08 08:05:55 51°13.582 2°56.136 22.0636 0.012039 0.064491 6.230306
2006-09-08 08:06:00 51°13.582 2°56.136 22.0641 0.012039 0.064491 6.230306
2006-09-08 08:06:05 51°13.582 2°56.136 22.0637 0.012039 0.06449 6.264016
2006-09-08 08:06:10 51°13.582 2°56.135 22.0631 0.012039 0.064488 6.230306
2006-09-08 08:06:15 51°13.582 2°56.135 22.0638 0.012039 0.064487 6.230306
2006-09-08 08:06:20 51°13.582 2°56.135 22.0634 0.012039 0.064486 6.230306
2006-09-08 08:06:25 51°13.582 2°56.135 22.0653 0.012039 0.064485 6.230306
2006-09-08 08:06:30 51°13.582 2°56.135 22.0669 0.012039 0.064485 6.230306
2006-09-08 08:06:35 51°13.582 2°56.135 22.067 0.012039 0.064483 6.230306
2006-09-08 08:06:40 51°13.582 2°56.135 22.0674 0.012039 0.064483 6.230306
2006-09-08 08:06:45 51°13.582 2°56.135 22.0694 0.012039 0.064481 6.230306
2006-09-08 08:06:50 51°13.582 2°56.136 22.0706 0.012039 0.06448 6.230306
2006-09-08 08:06:55 51°13.582 2°56.136 22.0712 0.012039 0.064479 6.264016
2006-09-08 08:07:00 51°13.583 2°56.136 22.0716 0.012039 0.064479 6.264016
2006-09-08 08:07:04 51°13.582 2°56.136 22.0706 0.012039 0.064477 6.230306
2006-09-08 08:07:10 51°13.582 2°56.136 22.0731 0.012039 0.064476 6.264016
2006-09-08 08:07:15 51°13.582 2°56.136 22.0731 0.012039 0.064474 6.230306
2006-09-08 08:07:20 51°13.582 2°56.136 22.0727 0.012039 0.064473 6.196597
2006-09-08 08:07:25 51°13.582 2°56.136 22.072 0.012039 0.064471 6.264016
2006-09-08 08:07:30 51°13.582 2°56.136 22.0728 0.012039 0.064471 6.264016
2006-09-08 08:07:35 51°13.582 2°56.136 22.0732 0.012039 0.064471 6.230306
2006-09-08 08:07:40 51°13.582 2°56.136 22.0753 0.012039 0.064469 6.230306
2006-09-08 08:07:44 51°13.582 2°56.136 22.0746 0.012039 0.064468 6.196597
2006-09-08 08:07:49 51°13.582 2°56.136 22.0751 0.012039 0.064466 6.230306
2006-09-08 08:07:55 51°13.582 2°56.136 22.0755 0.012039 0.064466 6.230306
2006-09-08 08:08:00 51°13.582 2°56.136 22.0764 0.012039 0.064466 6.230306
2006-09-08 08:08:05 51°13.582 2°56.136 22.0764 0.012039 0.064464 6.230306
2006-09-08 08:08:09 51°13.582 2°56.136 22.0761 0.012039 0.064462 6.230306
2006-09-08 08:08:15 51°13.582 2°56.136 22.0786 0.012039 0.064461 6.230306
2006-09-08 08:08:20 51°13.582 2°56.136 22.079 0.012039 0.06446 6.196597
2006-09-08 08:08:25 51°13.582 2°56.136 22.08 0.012039 0.064458 6.230306
2006-09-08 08:08:29 51°13.583 2°56.136 22.0795 0.012039 0.064458 6.230306
2006-09-08 08:08:35 51°13.583 2°56.136 22.0803 0.012039 0.064457 6.196597
2006-09-08 08:08:40 51°13.583 2°56.136 22.0794 0.012039 0.064455 6.230306
2006-09-08 08:08:45 51°13.583 2°56.136 22.0795 0.012039 0.064454 6.196597
2006-09-08 08:08:50 51°13.583 2°56.136 22.0813 0.012039 0.064453 6.230306
2006-09-08 08:08:55 51°13.583 2°56.136 22.0827 0.012039 0.064452 6.230306
2006-09-08 08:09:00 51°13.583 2°56.136 22.0834 0.012039 0.064452 6.230306
2006-09-08 08:09:05 51°13.583 2°56.136 22.0833 0.012039 0.06445 6.230306
2006-09-08 08:09:10 51°13.583 2°56.136 22.0835 0.012039 0.064449 6.230306
2006-09-08 08:09:15 51°13.583 2°56.136 22.083 0.012039 0.064448 6.230306
2006-09-08 08:09:20 51°13.584 2°56.136 22.0843 0.012039 0.064447 6.196597
2006-09-08 08:09:25 51°13.584 2°56.136 22.082 0.012039 0.064445 6.230306
2006-09-08 08:09:30 51°13.584 2°56.136 22.0823 0.012039 0.064445 6.230306
2006-09-08 08:09:35 51°13.584 2°56.136 22.0826 0.012039 0.064444 6.230306
2006-09-08 08:09:40 51°13.584 2°56.136 22.0846 0.012039 0.064443 6.230306
2006-09-08 08:09:45 51°13.584 2°56.136 22.0846 0.012039 0.064441 6.196597
2006-09-08 08:09:50 51°13.584 2°56.136 22.0865 0.012039 0.06444 6.230306
2006-09-08 08:09:55 51°13.584 2°56.136 22.0869 0.012039 0.064439 6.196597
2006-09-08 08:10:00 51°13.584 2°56.136 22.0878 0.012039 0.064439 6.196597
2006-09-08 08:10:04 51°13.583 2°56.136 22.089 0.012039 0.064438 6.264016
2006-09-08 08:10:10 51°13.583 2°56.136 22.0893 0.012039 0.064436 6.196597
2006-09-08 08:10:15 51°13.583 2°56.136 22.0893 0.012039 0.064435 6.196597
2006-09-08 08:10:20 51°13.583 2°56.136 22.0898 0.012039 0.064434 6.196597
2006-09-08 08:10:25 51°13.583 2°56.136 22.0908 0.012039 0.064433 6.230306
2006-09-08 08:10:30 51°13.583 2°56.136 22.0915 0.012039 0.064433 6.230306
2006-09-08 08:10:35 51°13.583 2°56.136 22.0905 0.012039 0.064432 6.230306
2006-09-08 08:10:40 51°13.583 2°56.136 22.0931 0.012039 0.064429 6.196597
2006-09-08 08:10:44 51°13.583 2°56.136 22.0933 0.012039 0.064429 6.196597
2006-09-08 08:10:49 51°13.583 2°56.136 22.0925 0.012039 0.064428 6.196597
2006-09-08 08:10:55 51°13.582 2°56.135 22.0933 0.012039 0.064427 6.196597
2006-09-08 08:11:00 51°13.581 2°56.135 22.0922 0.012039 0.064427 6.196597
2006-09-08 08:11:05 51°13.581 2°56.135 22.0936 0.012039 0.064424 6.196597
2006-09-08 08:11:10 51°13.581 2°56.135 22.0946 0.012039 0.064424 6.230306
2006-09-08 08:11:15 51°13.581 2°56.135 22.0944 0.012039 0.064423 6.264016
2006-09-08 08:11:20 51°13.581 2°56.135 22.0953 0.012039 0.064421 6.230306
2006-09-08 08:11:25 51°13.581 2°56.135 22.0938 0.012039 0.06442 6.230306
2006-09-08 08:11:30 51°13.581 2°56.135 22.0959 0.012039 0.06442 6.230306
2006-09-08 08:11:35 51°13.581 2°56.135 22.0962 0.012039 0.064418 6.196597
2006-09-08 08:11:40 51°13.581 2°56.135 22.0973 0.012039 0.064418 6.230306
2006-09-08 08:11:45 51°13.581 2°56.135 22.0996 0.012039 0.064416 6.196597
2006-09-08 08:11:50 51°13.581 2°56.135 22.0985 0.012039 0.064415 6.196597
2006-09-08 08:11:55 51°13.581 2°56.135 22.0997 0.012039 0.064413 6.230306
2006-09-08 08:12:00 51°13.581 2°56.135 22.1012 0.012039 0.064413 6.230306
2006-09-08 08:12:04 51°13.581 2°56.135 22.102 0.012039 0.064412 6.230306
2006-09-08 08:12:10 51°13.581 2°56.135 22.1024 0.012039 0.064411 6.230306
2006-09-08 08:12:15 51°13.581 2°56.135 22.1033 0.012039 0.06441 6.230306
2006-09-08 08:12:20 51°13.581 2°56.136 22.1026 0.012039 0.064409 6.196597
2006-09-08 08:12:25 51°13.581 2°56.136 22.1047 0.012039 0.064407 6.230306
2006-09-08 08:12:30 51°13.581 2°56.136 22.1057 0.012039 0.064407 6.230306
2006-09-08 08:12:35 51°13.581 2°56.136 22.1056 0.012039 0.064407 6.264016
2006-09-08 08:12:40 51°13.581 2°56.136 22.1065 0.012039 0.064404 6.230306
2006-09-08 08:12:44 51°13.581 2°56.136 22.1073 0.012039 0.064404 6.196597
2006-09-08 08:12:49 51°13.581 2°56.136 22.1067 0.012039 0.064402 6.196597
2006-09-08 08:12:55 51°13.581 2°56.136 22.1079 0.012039 0.064401 6.196597
2006-09-08 08:13:00 51°13.581 2°56.136 22.1075 0.012039 0.064401 6.196597
2006-09-08 08:13:06 51°13.581 2°56.136 22.1084 0.012039 0.064399 6.230306
2006-09-08 08:13:10 51°13.581 2°56.136 22.1085 0.012039 0.064399 6.230306
2006-09-08 08:13:15 51°13.581 2°56.136 22.1102 0.012039 0.064397 6.230306
2006-09-08 08:13:20 51°13.581 2°56.136 22.1103 0.012039 0.064396 6.196597
2006-09-08 08:13:25 51°13.581 2°56.136 22.111 0.012039 0.064395 6.196597
2006-09-08 08:13:30 51°13.581 2°56.136 22.1115 0.012039 0.064395 6.196597
2006-09-08 08:13:35 51°13.582 2°56.136 22.1122 0.012039 0.064394 6.230306
2006-09-08 08:13:40 51°13.582 2°56.136 22.1114 0.012039 0.064393 6.230306
2006-09-08 08:13:44 51°13.582 2°56.136 22.1142 0.012039 0.064391 6.196597
2006-09-08 08:13:50 51°13.582 2°56.137 22.114 0.012039 0.064389 6.196597
2006-09-08 08:13:55 51°13.581 2°56.136 22.1151 0.012039 0.064388 6.196597
2006-09-08 08:14:00 51°13.58 2°56.136 22.1147 0.012039 0.064388 6.196597
2006-09-08 08:14:04 51°13.58 2°56.135 22.1124 0.012039 0.064388 6.196597
2006-09-08 08:14:10 51°13.58 2°56.135 22.1139 0.012039 0.064387 6.162888
2006-09-08 08:14:15 51°13.58 2°56.135 22.1151 0.012039 0.064385 6.196597
2006-09-08 08:14:20 51°13.58 2°56.135 22.1156 0.012039 0.064384 6.196597
2006-09-08 08:14:25 51°13.58 2°56.135 22.1148 0.012039 0.064382 6.230306
2006-09-08 08:14:30 51°13.58 2°56.135 22.1165 0.012039 0.064382 6.230306
2006-09-08 08:14:35 51°13.58 2°56.135 22.1171 0.012039 0.064382 6.196597
2006-09-08 08:14:40 51°13.58 2°56.135 22.1182 0.012039 0.06438 6.196597
2006-09-08 08:14:45 51°13.58 2°56.135 22.118 0.012039 0.064379 6.162888
2006-09-08 08:14:50 51°13.58 2°56.135 22.1185 0.012039 0.064377 6.196597
2006-09-08 08:14:54 51°13.58 2°56.135 22.1188 0.012039 0.064376 6.196597
2006-09-08 08:15:00 51°13.58 2°56.136 22.1194 0.012039 0.064376 6.196597
2006-09-08 08:15:05 51°13.58 2°56.136 22.1205 0.012039 0.064375 6.230306
2006-09-08 08:15:10 51°13.58 2°56.136 22.1216 0.012039 0.064374 6.196597
2006-09-08 08:15:15 51°13.58 2°56.136 22.1216 0.012039 0.064373 6.196597
2006-09-08 08:15:20 51°13.58 2°56.136 22.1233 0.012039 0.064371 6.196597
2006-09-08 08:15:25 51°13.58 2°56.136 22.1234 0.012039 0.064371 6.196597
2006-09-08 08:15:30 51°13.58 2°56.136 22.1227 0.012039 0.064371 6.196597
2006-09-08 08:15:35 51°13.58 2°56.136 22.124 0.012039 0.064368 6.196597
2006-09-08 08:15:40 51°13.58 2°56.136 22.1236 0.012039 0.064368 6.196597
2006-09-08 08:15:45 51°13.58 2°56.136 22.1246 0.012039 0.064366 6.196597
2006-09-08 08:15:50 51°13.58 2°56.135 22.1262 0.012039 0.064365 6.196597
2006-09-08 08:15:55 51°13.58 2°56.135 22.1256 0.012039 0.064363 6.196597
2006-09-08 08:16:00 51°13.58 2°56.136 22.1261 0.012039 0.064363 6.196597
2006-09-08 08:16:03 51°13.58 2°56.136 22.1255 0.012039 0.064362 6.196597
2006-09-08 08:16:10 51°13.58 2°56.136 22.1266 0.012039 0.064361 6.196597
2006-09-08 08:16:15 51°13.58 2°56.136 22.1276 0.012039 0.06436 6.196597
2006-09-08 08:16:20 51°13.58 2°56.136 22.1276 0.012039 0.064358 6.162888
2006-09-08 08:16:24 51°13.58 2°56.136 22.1279 0.012039 0.064357 6.196597
2006-09-08 08:16:30 51°13.58 2°56.136 22.1287 0.012039 0.064357 6.196597
2006-09-08 08:16:35 51°13.58 2°56.136 22.1291 0.012039 0.064356 6.230306
2006-09-08 08:16:40 51°13.58 2°56.136 22.1315 0.012039 0.064354 6.196597
2006-09-08 08:16:45 51°13.58 2°56.136 22.1302 0.012039 0.064353 6.196597
2006-09-08 08:16:50 51°13.58 2°56.136 22.1299 0.012039 0.064352 6.196597
2006-09-08 08:16:54 51°13.58 2°56.136 22.1312 0.012039 0.064351 6.196597
2006-09-08 08:16:59 51°13.58 2°56.136 22.1306 0.012039 0.064351 6.196597
2006-09-08 08:17:05 51°13.58 2°56.136 22.1309 0.012039 0.064349 6.196597
2006-09-08 08:17:10 51°13.58 2°56.136 22.1308 0.012039 0.064348 6.196597
2006-09-08 08:17:15 51°13.58 2°56.136 22.1326 0.012039 0.064347 6.196597
2006-09-08 08:17:20 51°13.58 2°56.136 22.1334 0.012039 0.064346 6.162888
2006-09-08 08:17:25 51°13.58 2°56.136 22.1333 0.012039 0.064344 6.162888
2006-09-08 08:17:30 51°13.58 2°56.136 22.1338 0.012039 0.064344 6.162888
2006-09-08 08:17:35 51°13.58 2°56.136 22.1329 0.012039 0.064343 6.196597
2006-09-08 08:17:40 51°13.58 2°56.136 22.1339 0.012039 0.064341 6.162888
2006-09-08 08:17:45 51°13.58 2°56.136 22.1337 0.012039 0.06434 6.162888
2006-09-08 08:17:49 51°13.58 2°56.136 22.1335 0.012039 0.064339 6.162888
2006-09-08 08:17:55 51°13.58 2°56.136 22.1344 0.012039 0.064338 6.196597
2006-09-08 08:18:00 51°13.58 2°56.136 22.1365 0.012039 0.064338 6.196597
2006-09-08 08:18:05 51°13.58 2°56.136 22.137 0.012039 0.064338 6.196597
2006-09-08 08:18:08 51°13.58 2°56.136 22.1379 0.012039 0.064335 6.196597
2006-09-08 08:18:15 51°13.568 2°56.132 22.1391 0.012039 0.064335 6.196597
2006-09-08 08:18:20 51°13.574 2°56.128 22.1391 0.012039 0.064334 6.196597
2006-09-08 08:18:24 51°13.576 2°56.126 22.1392 0.012039 0.064332 6.196597
2006-09-08 08:18:30 51°13.575 2°56.135 22.1395 0.012039 0.064332 6.196597
2006-09-08 08:18:35 51°13.575 2°56.134 22.1393 0.012039 0.064331 6.162888
2006-09-08 08:18:40 51°13.576 2°56.134 22.1396 0.012039 0.064329 6.196597
2006-09-08 08:18:45 51°13.577 2°56.133 22.14 0.012039 0.064329 6.196597
2006-09-08 08:18:50 51°13.577 2°56.133 22.141 0.012039 0.064326 6.196597
2006-09-08 08:18:55 51°13.577 2°56.133 22.1403 0.012039 0.064326 6.196597
2006-09-08 08:19:00 51°13.578 2°56.133 22.1408 0.012039 0.064326 6.196597
2006-09-08 08:19:04 51°13.578 2°56.133 22.1411 0.012039 0.064325 6.196597
2006-09-08 08:19:10 51°13.578 2°56.133 22.1425 0.012039 0.064323 6.196597
2006-09-08 08:19:15 51°13.579 2°56.133 22.1434 0.012039 0.064323 6.196597
2006-09-08 08:19:20 51°13.578 2°56.134 22.1436 0.012039 0.064321 6.162888
2006-09-08 08:19:25 51°13.578 2°56.134 22.145 0.012039 0.06432 6.196597
2006-09-08 08:19:30 51°13.578 2°56.134 22.1446 0.012039 0.06432 6.196597
2006-09-08 08:19:35 51°13.578 2°56.135 22.1452 0.012039 0.064319 6.162888
2006-09-08 08:19:40 51°13.578 2°56.135 22.1444 0.012039 0.064318 6.162888
2006-09-08 08:19:44 51°13.579 2°56.135 22.1457 0.012039 0.064316 6.162888
2006-09-08 08:19:49 51°13.578 2°56.135 22.146 0.012039 0.064315 6.196597
2006-09-08 08:19:55 51°13.578 2°56.135 22.1483 0.012039 0.064314 6.162888
2006-09-08 08:20:00 51°13.578 2°56.135 22.1492 0.012039 0.064314 6.162888
2006-09-08 08:20:05 51°13.578 2°56.135 22.1493 0.012039 0.064313 6.196597
2006-09-08 08:20:10 51°13.579 2°56.135 22.1515 0.012039 0.064312 6.196597
2006-09-08 08:20:15 51°13.579 2°56.135 22.1518 0.012039 0.064311 6.196597
2006-09-08 08:20:20 51°13.579 2°56.135 22.1519 0.012039 0.064309 6.196597
2006-09-08 08:20:25 51°13.58 2°56.135 22.1525 0.012039 0.064308 6.196597
2006-09-08 08:20:30 51°13.58 2°56.135 22.1527 0.012039 0.064308 6.196597
2006-09-08 08:20:35 51°13.58 2°56.135 22.153 0.012039 0.064307 6.196597
2006-09-08 08:20:40 51°13.58 2°56.136 22.1527 0.012039 0.064306 6.162888
2006-09-08 08:20:45 51°13.58 2°56.136 22.1534 0.012039 0.064305 6.196597
2006-09-08 08:20:50 51°13.58 2°56.136 22.1539 0.012039 0.064304 6.162888
2006-09-08 08:20:55 51°13.58 2°56.136 22.1547 0.012039 0.064302 6.162888
2006-09-08 08:21:00 51°13.581 2°56.136 22.1553 0.012039 0.064302 6.162888
2006-09-08 08:21:04 51°13.581 2°56.136 22.1549 0.012039 0.064301 6.162888
2006-09-08 08:21:10 51°13.581 2°56.136 22.1572 0.012039 0.0643 6.162888
2006-09-08 08:21:15 51°13.58 2°56.136 22.1574 0.012039 0.064299 6.196597
2006-09-08 08:21:20 51°13.58 2°56.136 22.159 0.012039 0.064298 6.196597
2006-09-08 08:21:25 51°13.58 2°56.136 22.1595 0.012039 0.064296 6.162888
2006-09-08 08:21:30 51°13.58 2°56.136 22.1603 0.012039 0.064296 6.162888
2006-09-08 08:21:35 51°13.58 2°56.136 22.1597 0.012039 0.064296 6.162888
2006-09-08 08:21:40 51°13.58 2°56.136 22.1592 0.012039 0.064294 6.196597
2006-09-08 08:21:44 51°13.58 2°56.136 22.1583 0.012039 0.064294 6.196597
2006-09-08 08:21:49 51°13.58 2°56.136 22.1558 0.012039 0.064292 6.196597
2006-09-08 08:21:55 51°13.58 2°56.136 22.1573 0.012039 0.064291 6.196597
2006-09-08 08:22:00 51°13.58 2°56.136 22.1559 0.012039 0.064291 6.196597
2006-09-08 08:22:05 51°13.58 2°56.136 22.1567 0.012039 0.064291 6.162888
2006-09-08 08:22:10 51°13.58 2°56.136 22.16 0.012039 0.064291 6.162888
2006-09-08 08:22:15 51°13.58 2°56.136 22.1596 0.012039 0.064289 6.162888
2006-09-08 08:22:20 51°13.58 2°56.136 22.161 0.012039 0.064289 6.162888
2006-09-08 08:22:25 51°13.58 2°56.136 22.1615 0.012039 0.064288 6.162888
2006-09-08 08:22:30 51°13.58 2°56.136 22.1623 0.012039 0.064288 6.162888
2006-09-08 08:22:35 51°13.58 2°56.136 22.1627 0.012039 0.064287 6.162888
2006-09-08 08:22:40 51°13.58 2°56.136 22.1631 0.012039 0.064286 6.162888
2006-09-08 08:22:45 51°13.58 2°56.136 22.1644 0.012039 0.064285 6.196597
2006-09-08 08:22:50 51°13.58 2°56.136 22.1644 0.012039 0.064285 6.162888
2006-09-08 08:22:55 51°13.58 2°56.136 22.1644 0.012039 0.064284 6.162888
2006-09-08 08:23:00 51°13.58 2°56.136 22.1657 0.012039 0.064284 6.162888
2006-09-08 08:23:05 51°13.58 2°56.136 22.1672 0.012039 0.064283 6.196597
2006-09-08 08:23:10 51°13.58 2°56.136 22.1675 0.012039 0.064283 6.162888
2006-09-08 08:23:15 51°13.58 2°56.136 22.1682 0.012039 0.064283 6.196597
2006-09-08 08:23:20 51°13.58 2°56.136 22.1676 0.012039 0.064282 6.196597
2006-09-08 08:23:25 51°13.58 2°56.136 22.1675 0.012039 0.064282 6.162888
2006-09-08 08:23:30 51°13.58 2°56.136 22.168 0.012039 0.064282 6.162888
2006-09-08 08:23:35 51°13.58 2°56.136 22.1689 0.012039 0.06428 6.162888
2006-09-08 08:23:40 51°13.58 2°56.136 22.1677 0.012039 0.06428 6.196597
2006-09-08 08:23:45 51°13.58 2°56.137 22.1688 0.012039 0.06428 6.162888
2006-09-08 08:23:50 51°13.581 2°56.137 22.1682 0.012039 0.064279 6.196597
2006-09-08 08:23:55 51°13.581 2°56.137 22.1686 0.012039 0.064279 6.196597
2006-09-08 08:24:00 51°13.581 2°56.137 22.1697 0.012039 0.064279 6.196597
2006-09-08 08:24:04 51°13.581 2°56.137 22.1692 0.012039 0.064278 6.196597
2006-09-08 08:24:09 51°13.581 2°56.137 22.1707 0.012039 0.064277 6.162888
2006-09-08 08:24:15 51°13.581 2°56.137 22.1742 0.012039 0.064277 6.196597
2006-09-08 08:24:20 51°13.581 2°56.137 22.1703 0.012039 0.064276 6.196597
2006-09-08 08:24:25 51°13.58 2°56.137 22.1761 0.012039 0.064276 6.162888
2006-09-08 08:24:29 51°13.58 2°56.137 22.1732 0.012039 0.064276 6.162888
2006-09-08 08:24:35 51°13.58 2°56.137 22.1747 0.012039 0.064276 6.162888
2006-09-08 08:24:40 51°13.58 2°56.137 22.1777 0.012039 0.064275 6.162888